W4HSV Weather Reports


time (UTC)temp
C
wind
direction
speed
KPH
gust
KPH
rain 1hr
cm
rain 24hr
cm
rain mn
cm
humidity
%
barometer
mb
20260508211717 22 195 12.9 17.7 0.00 0.00 0.00 50 1012.1
20260508211625 22 140 12.9 17.7 0.00 0.00 0.00 51 1012.1
20260508211512 22 94 11.3 17.7 0.00 0.00 0.00 50 1012.2
20260508211420 22 130 9.7 19.3 0.00 0.00 0.00 50 1012.2
20260508211326 22 121 8.0 17.7 0.00 0.00 0.00 50 1012.2
20260508211219 22 151 8.0 19.3 0.00 0.00 0.00 49 1012.1
20260508211127 22 157 6.4 19.3 0.00 0.00 0.00 50 1012.1
20260508211015 22 238 8.0 19.3 0.00 0.00 0.00 52 1012.1
20260508210922 22 200 9.7 19.3 0.00 0.00 0.00 50 1012.1
20260508210828 22 200 11.3 19.3 0.00 0.00 0.00 49 1012.1
20260508210716 22 185 11.3 19.3 0.00 0.00 0.00 49 1012.2
20260508210627 22 215 9.7 19.3 0.00 0.00 0.00 49 1012.2
20260508210557 22 209 8.0 19.3 0.00 0.00 0.00 50 1012.1
20260508210330 22 171 8.0 14.5 0.00 0.00 0.00 49 1012.1
20260508210218 22 150 8.0 14.5 0.00 0.00 0.00 49 1012.1
20260508210130 22 193 8.0 14.5 0.00 0.00 0.00 50 1012.1
20260508210037 22 192 9.7 14.5 0.00 0.00 0.00 49 1012.0
20260508205924 22 159 9.7 14.5 0.00 0.00 0.00 48 1012.0
20260508205812 22 192 6.4 14.5 0.00 0.00 0.00 50 1012.0
20260508205719 22 160 6.4 14.5 0.00 0.00 0.00 49 1012.0
20260508205626 22 192 6.4 17.7 0.00 0.00 0.00 49 1012.0
20260508205518 22 200 8.0 17.7 0.00 0.00 0.00 48 1012.1
20260508205425 22 209 8.0 17.7 0.00 0.00 0.00 48 1012.1
20260508205311 22 203 8.0 17.7 0.00 0.00 0.00 48 1012.1
20260508205219 22 232 8.0 17.7 0.00 0.00 0.00 47 1012.1
20260508205126 22 209 9.7 17.7 0.00 0.00 0.00 47 1012.1
20260508205059 22 173 9.7 17.7 0.00 0.00 0.00 47 1012.0
20260508204813 22 186 12.9 17.7 0.00 0.00 0.00 47 1012.0
20260508204720 22 223 12.9 17.7 0.00 0.00 0.00 46 1012.0
20260508204627 22 202 11.3 17.7 0.00 0.00 0.00 47 1012.0
20260508204535 22 212 11.3 22.5 0.00 0.00 0.00 48 1012.1
20260508204425 22 175 8.0 22.5 0.00 0.00 0.00 47 1012.1
20260508204313 22 241 4.8 22.5 0.00 0.00 0.00 47 1012.1
20260508204221 22 230 6.4 22.5 0.00 0.00 0.00 47 1012.1
20260508204128 22 166 11.3 22.5 0.00 0.00 0.00 48 1012.1
20260508204036 22 203 14.5 22.5 0.00 0.00 0.00 47 1012.1
20260508203924 22 209 14.5 22.5 0.00 0.00 0.00 48 1012.1
20260508203816 22 151 11.3 19.3 0.00 0.00 0.00 48 1012.1
20260508203744 22 123 6.4 17.7 0.00 0.00 0.00 48 1012.1
20260508203631 22 142 4.8 17.7 0.00 0.00 0.00 49 1012.1
20260508203601 22 165 6.4 17.7 0.00 0.00 0.00 48 1012.2
20260508203335 22 158 6.4 17.7 0.00 0.00 0.00 48 1012.1
20260508203226 22 144 6.4 17.7 0.00 0.00 0.00 50 1012.1
20260508203113 22 151 4.8 17.7 0.00 0.00 0.00 47 1012.2
20260508203022 22 146 8.0 17.7 0.00 0.00 0.00 48 1012.2
20260508202929 22 132 8.0 24.1 0.00 0.00 0.00 47 1012.3
20260508202838 22 138 11.3 24.1 0.00 0.00 0.00 47 1012.5
20260508202724 22 128 11.3 24.1 0.00 0.00 0.00 47 1012.5
20260508202615 22 135 12.9 24.1 0.00 0.00 0.00 46 1012.5
20260508202522 22 134 11.3 24.1 0.00 0.00 0.00 45 1012.5
20260508202431 22 182 9.7 24.1 0.00 0.00 0.00 47 1012.5
20260508202319 22 111 11.3 24.1 0.00 0.00 0.00 46 1012.5
20260508202246 22 198 11.3 24.1 0.00 0.00 0.00 45 1012.5
20260508202113 22 180 9.7 22.5 0.00 0.00 0.00 46 1012.7
20260508202048 22 185 9.7 22.5 0.00 0.00 0.00 46 1012.7
20260508201842 22 116 8.0 22.5 0.00 0.00 0.00 45 1013.0
20260508201729 22 140 8.0 22.5 0.00 0.00 0.00 45 1013.0
20260508201638 22 126 9.7 22.5 0.00 0.00 0.00 44 1013.1
20260508201525 22 115 9.7 22.5 0.00 0.00 0.00 45 1013.1
20260508201416 22 138 9.7 22.5 0.00 0.00 0.00 46 1013.1
20260508201325 22 119 9.7 22.5 0.00 0.00 0.00 44 1013.1
20260508201213 22 142 11.3 19.3 0.00 0.00 0.00 45 1013.1
20260508201119 22 146 11.3 19.3 0.00 0.00 0.00 44 1013.1
20260508201026 22 144 9.7 19.3 0.00 0.00 0.00 43 1013.1
20260508200933 22 191 11.3 19.3 0.00 0.00 0.00 41 1013.1
20260508200843 22 150 12.9 19.3 0.00 0.00 0.00 42 1013.1
20260508200728 22 184 9.7 19.3 0.00 0.00 0.00 42 1013.1
20260508200616 22 184 6.4 19.3 0.00 0.00 0.00 44 1013.0
20260508200546 22 190 6.4 19.3 0.00 0.00 0.00 44 1013.0
20260508200320 22 190 11.3 19.3 0.00 0.00 0.00 45 1012.7
20260508200211 22 156 11.3 19.3 0.00 0.00 0.00 45 1012.7
20260508200120 22 176 11.3 19.3 0.00 0.00 0.00 45 1012.7
20260508200027 22 207 8.0 16.1 0.00 0.00 0.00 45 1012.7
20260508195914 22 161 6.4 16.1 0.00 0.00 0.00 44 1012.7
20260508195822 22 158 4.8 16.1 0.00 0.00 0.00 44 1012.7
20260508195734 22 200 4.8 16.1 0.00 0.00 0.00 45 1012.8
20260508195621 22 206 6.4 16.1 0.00 0.00 0.00 46 1012.8
20260508195528 22 113 8.0 16.1 0.00 0.00 0.00 44 1012.7
20260508195417 22 140 8.0 16.1 0.00 0.00 0.00 45 1012.8
20260508195325 22 135 8.0 16.1 0.00 0.00 0.00 44 1012.8
20260508195212 22 146 9.7 16.1 0.00 0.00 0.00 47 1012.8
20260508195123 22 165 9.7 16.1 0.00 0.00 0.00 47 1012.8
20260508195057 22 136 9.7 14.5 0.00 0.00 0.00 47 1012.8
20260508194811 22 176 8.0 14.5 0.00 0.00 0.00 46 1012.8
20260508194719 22 229 8.0 14.5 0.00 0.00 0.00 45 1012.8
20260508194630 22 177 8.0 14.5 0.00 0.00 0.00 46 1012.8
20260508194517 22 182 9.7 14.5 0.00 0.00 0.00 46 1012.7
20260508194425 22 159 9.7 14.5 0.00 0.00 0.00 46 1012.7
20260508194313 22 115 6.4 14.5 0.00 0.00 0.00 45 1012.6
20260508194241 22 161 4.8 14.5 0.00 0.00 0.00 45 1012.6
20260508194126 22 67 4.8 14.5 0.00 0.00 0.00 46 1012.6
20260508194017 21 135 8.0 14.5 0.00 0.00 0.00 46 1012.7
20260508193925 21 218 9.7 14.5 0.00 0.00 0.00 48 1012.7
20260508193812 21 122 9.7 14.5 0.00 0.00 0.00 48 1012.8
20260508193719 21 103 8.0 14.5 0.00 0.00 0.00 48 1012.8
20260508193646 21 175 8.0 14.5 0.00 0.00 0.00 48 1012.8
20260508193621 21 147 8.0 14.5 0.00 0.00 0.00 48 1012.9
20260508193313 21 163 8.0 14.5 0.00 0.00 0.00 49 1013.0
20260508193241 21 129 8.0 14.5 0.00 0.00 0.00 46 1013.0
20260508193129 21 122 8.0 14.5 0.00 0.00 0.00 46 1013.0
20260508193016 21 209 8.0 14.5 0.00 0.00 0.00 46 1013.0
20260508192945 21 140 8.0 14.5 0.00 0.00 0.00 46 1013.0
20260508192815 21 171 6.4 12.9 0.00 0.00 0.00 48 1013.0
20260508192744 21 119 4.8 14.5 0.00 0.00 0.00 48 1013.0
20260508192629 21 187 6.4 14.5 0.00 0.00 0.00 47 1013.0
20260508192536 21 121 6.4 14.5 0.00 0.00 0.00 48 1013.1
20260508192423 21 119 8.0 14.5 0.00 0.00 0.00 48 1013.1
20260508192311 21 102 8.0 14.5 0.00 0.00 0.00 46 1013.1
20260508192240 21 144 9.7 17.7 0.00 0.00 0.00 48 1013.1
20260508192149 21 148 9.7 17.7 0.00 0.00 0.00 48 1013.1
20260508192059 21 95 8.0 17.7 0.00 0.00 0.00 46 1013.1
20260508191811 21 163 6.4 17.7 0.00 0.00 0.00 47 1013.1
20260508191718 21 175 6.4 17.7 0.00 0.00 0.00 46 1013.2
20260508191625 21 191 6.4 17.7 0.00 0.00 0.00 45 1013.2
20260508191516 21 214 9.7 17.7 0.00 0.00 0.00 45 1013.3
20260508191424 21 181 11.3 17.7 0.00 0.00 0.00 46 1013.3
20260508191311 21 255 8.0 16.1 0.00 0.00 0.00 46 1013.3
20260508191218 21 163 8.0 16.1 0.00 0.00 0.00 48 1013.3
20260508191126 21 116 8.0 16.1 0.00 0.00 0.00 48 1013.3
20260508191018 21 175 6.4 16.1 0.00 0.00 0.00 47 1013.4
20260508190925 21 179 4.8 16.1 0.00 0.00 0.00 48 1013.4
20260508190813 21 142 6.4 16.1 0.00 0.00 0.00 48 1013.2
20260508190720 21 167 8.0 16.1 0.00 0.00 0.00 47 1013.3
20260508190628 21 154 9.7 16.1 0.00 0.00 0.00 48 1013.3
20260508190603 21 143 9.7 17.7 0.00 0.00 0.00 48 1013.3
20260508190336 21 178 8.0 17.7 0.00 0.00 0.00 49 1013.5
20260508190222 21 116 6.4 16.1 0.00 0.00 0.00 48 1013.5
20260508190149 21 167 6.4 16.1 0.00 0.00 0.00 47 1013.4
20260508190015 21 140 6.4 17.7 0.00 0.00 0.00 47 1013.5
20260508185922 21 160 8.0 17.7 0.00 0.00 0.00 48 1013.5
20260508185812 21 138 4.8 17.7 0.00 0.00 0.00 48 1013.6
20260508185740 21 151 4.8 17.7 0.00 0.00 0.00 50 1013.7
20260508185625 21 120 6.4 17.7 0.00 0.00 0.00 49 1013.7
20260508185514 21 184 9.7 17.7 0.00 0.00 0.00 47 1013.8
20260508185422 21 190 9.7 17.7 0.00 0.00 0.00 46 1013.8
20260508185313 21 188 11.3 17.7 0.00 0.00 0.00 47 1013.7
20260508185221 21 135 9.7 17.7 0.00 0.00 0.00 48 1013.7
20260508185129 21 195 8.0 16.1 0.00 0.00 0.00 48 1013.7
20260508185100 21 171 6.4 16.1 0.00 0.00 0.00 49 1013.7
20260508184814 21 145 8.0 16.1 0.00 0.00 0.00 48 1013.6
20260508184746 21 153 9.7 16.1 0.00 0.00 0.00 48 1013.6
20260508184633 21 129 9.7 19.3 0.00 0.00 0.00 47 1013.6
20260508184519 21 121 6.4 19.3 0.00 0.00 0.00 47 1013.5
20260508184426 21 147 3.2 19.3 0.00 0.00 0.00 45 1013.5
20260508184313 21 56 3.2 19.3 0.00 0.00 0.00 45 1013.7
20260508184240 21 96 6.4 19.3 0.00 0.00 0.00 45 1013.7
20260508184127 21 157 8.0 19.3 0.00 0.00 0.00 43 1013.7
20260508184018 21 193 9.7 19.3 0.00 0.00 0.00 43 1013.7
20260508183925 21 192 9.7 19.3 0.00 0.00 0.00 47 1013.7
20260508183833 21 134 12.9 19.3 0.00 0.00 0.00 46 1013.7
20260508183720 21 136 9.7 20.9 0.00 0.00 0.00 47 1013.6
20260508183647 21 139 6.4 20.9 0.00 0.00 0.00 47 1013.6
20260508183623 21 136 4.8 16.1 0.00 0.00 0.00 47 1013.7
20260508183316 21 133 8.0 16.1 0.00 0.00 0.00 46 1013.9
20260508183224 21 120 9.7 16.1 0.00 0.00 0.00 47 1013.9
20260508183131 21 131 9.7 16.1 0.00 0.00 0.00 47 1013.9
20260508183019 21 120 6.4 12.9 0.00 0.00 0.00 47 1013.9
20260508182929 21 86 6.4 12.9 0.00 0.00 0.00 47 1013.9
20260508182817 21 121 6.4 12.9 0.00 0.00 0.00 47 1013.9
20260508182725 21 117 6.4 14.5 0.00 0.00 0.00 48 1013.9
20260508182612 21 92 6.4 16.1 0.00 0.00 0.00 47 1013.9
20260508182519 21 76 6.4 16.1 0.00 0.00 0.00 46 1013.9
20260508182446 21 120 6.4 16.1 0.00 0.00 0.00 46 1013.9
20260508182315 21 144 8.0 16.1 0.00 0.00 0.00 46 1013.9
20260508182223 21 115 9.7 16.1 0.00 0.00 0.00 47 1013.9
20260508182130 21 113 9.7 17.7 0.00 0.00 0.00 46 1013.9
20260508182100 21 117 8.0 17.7 0.00 0.00 0.00 47 1013.8
20260508181818 21 46 6.4 17.7 0.00 0.00 0.00 45 1014.0
20260508181725 21 124 6.4 17.7 0.00 0.00 0.00 45 1014.0
20260508181612 21 120 6.4 17.7 0.00 0.00 0.00 46 1014.2
20260508181519 21 81 6.4 17.7 0.00 0.00 0.00 45 1014.3
20260508181427 21 151 8.0 17.7 0.00 0.00 0.00 46 1014.3
20260508181336 21 99 9.7 17.7 0.00 0.00 0.00 45 1014.4
20260508181228 21 148 11.3 17.7 0.00 0.00 0.00 45 1014.4
20260508181136 21 90 8.0 17.7 0.00 0.00 0.00 45 1014.4
20260508181021 21 127 6.4 16.1 0.00 0.00 0.00 46 1014.4
20260508180929 21 108 8.0 16.1 0.00 0.00 0.00 46 1014.5
20260508180817 21 110 9.7 17.7 0.00 0.00 0.00 45 1014.5
20260508180724 21 141 9.7 19.3 0.00 0.00 0.00 45 1014.5
20260508180617 21 137 6.4 19.3 0.00 0.00 0.00 43 1014.6
20260508180547 21 93 8.0 19.3 0.00 0.00 0.00 44 1014.6
20260508180340 21 69 6.4 19.3 0.00 0.00 0.00 46 1014.6
20260508180228 21 178 8.0 19.3 0.00 0.00 0.00 43 1014.6
20260508180115 21 147 9.7 19.3 0.00 0.00 0.00 44 1014.7
20260508180027 21 119 11.3 19.3 0.00 0.00 0.00 43 1014.7
20260508175936 21 155 9.7 19.3 0.00 0.00 0.00 44 1014.6
20260508175823 21 124 6.4 16.1 0.00 0.00 0.00 44 1014.6
20260508175750 21 88 4.8 16.1 0.00 0.00 0.00 41 1014.7
20260508175615 21 96 6.4 17.7 0.00 0.00 0.00 43 1014.6
20260508175524 21 105 6.4 17.7 0.00 0.00 0.00 41 1014.6
20260508175416 21 127 8.0 17.7 0.00 0.00 0.00 42 1014.7
20260508175323 21 131 9.7 17.7 0.00 0.00 0.00 42 1014.7
20260508175211 21 108 6.4 17.7 0.00 0.00 0.00 42 1014.7
20260508175119 21 107 6.4 17.7 0.00 0.00 0.00 41 1014.8
20260508175049 21 118 8.0 17.7 0.00 0.00 0.00 41 1014.8
20260508174828 21 122 11.3 17.7 0.00 0.00 0.00 42 1014.9
20260508174714 21 106 8.0 17.7 0.00 0.00 0.00 43 1014.9
20260508174622 21 155 4.8 12.9 0.00 0.00 0.00 43 1014.9
20260508174530 21 92 3.2 8.0 0.00 0.00 0.00 43 1014.9
20260508174417 21 217 3.2 8.0 0.00 0.00 0.00 43 1015.0
20260508174328 21 350 3.2 8.0 0.00 0.00 0.00 43 1015.0
20260508174215 21 326 3.2 8.0 0.00 0.00 0.00 44 1014.9
20260508174122 21 54 4.8 14.5 0.00 0.00 0.00 44 1014.9
20260508174030 21 49 3.2 14.5 0.00 0.00 0.00 44 1014.9
20260508173917 21 80 3.2 16.1 0.00 0.00 0.00 44 1015.0
20260508173824 21 63 3.2 16.1 0.00 0.00 0.00 43 1015.0
20260508173716 21 86 4.8 17.7 0.00 0.00 0.00 46 1015.1
20260508173644 21 40 4.8 17.7 0.00 0.00 0.00 44 1015.1
20260508173614 21 72 6.4 17.7 0.00 0.00 0.00 44 1015.0
20260508173326 21 42 8.0 17.7 0.00 0.00 0.00 43 1015.2
20260508173217 21 112 11.3 17.7 0.00 0.00 0.00 45 1015.2
20260508173125 21 144 12.9 17.7 0.00 0.00 0.00 43 1015.2
20260508173013 21 142 12.9 17.7 0.00 0.00 0.00 44 1015.2
20260508172920 21 120 11.3 17.7 0.00 0.00 0.00 45 1015.3
20260508172827 21 147 6.4 14.5 0.00 0.00 0.00 45 1015.3
20260508172715 21 147 4.8 17.7 0.00 0.00 0.00 44 1015.2
20260508172625 21 25 3.2 17.7 0.00 0.00 0.00 43 1015.2
20260508172513 21 319 4.8 17.7 0.00 0.00 0.00 41 1015.3
20260508172422 21 288 4.8 17.7 0.00 0.00 0.00 42 1015.3
20260508172329 21 232 4.8 17.7 0.00 0.00 0.00 44 1015.2
20260508172237 21 263 8.0 17.7 0.00 0.00 0.00 45 1015.2
20260508172124 21 271 9.7 17.7 0.00 0.00 0.00 42 1015.2
20260508172059 21 302 9.7 17.7 0.00 0.00 0.00 42 1015.2
20260508171813 21 205 6.4 17.7 0.00 0.00 0.00 43 1015.4
20260508171719 20 215 4.8 17.7 0.00 0.00 0.00 43 1015.5
20260508171626 21 100 4.8 17.7 0.00 0.00 0.00 44 1015.5
20260508171517 20 188 8.0 17.7 0.00 0.00 0.00 43 1015.7
20260508171445 20 167 8.0 17.7 0.00 0.00 0.00 43 1015.7
20260508171311 20 174 8.0 19.3 0.00 0.00 0.00 43 1015.7
20260508171218 20 147 8.0 16.1 0.00 0.00 0.00 43 1015.6
20260508171127 20 188 8.0 16.1 0.00 0.00 0.00 43 1015.6
20260508171014 20 189 6.4 19.3 0.00 0.00 0.00 43 1015.6
20260508170926 20 197 6.4 22.5 0.00 0.00 0.00 44 1015.6
20260508170813 20 190 8.0 22.5 0.00 0.00 0.00 44 1015.8
20260508170721 20 167 9.7 22.5 0.00 0.00 0.00 45 1015.8
20260508170629 20 193 8.0 22.5 0.00 0.00 0.00 45 1015.6
20260508170559 20 242 8.0 22.5 0.00 0.00 0.00 44 1015.8
20260508170316 21 188 9.7 22.5 0.00 0.00 0.00 44 1015.7
20260508170225 21 177 14.5 22.5 0.00 0.00 0.00 44 1015.7
20260508170112 21 144 14.5 22.5 0.00 0.00 0.00 45 1015.9
20260508170020 21 138 11.3 19.3 0.00 0.00 0.00 45 1016.0
20260508165928 21 123 9.7 19.3 0.00 0.00 0.00 46 1016.0
20260508165818 21 178 11.3 19.3 0.00 0.00 0.00 45 1015.9
20260508165725 20 184 12.9 19.3 0.00 0.00 0.00 46 1015.9
20260508165612 20 158 12.9 19.3 0.00 0.00 0.00 48 1015.9
20260508165519 20 169 12.9 19.3 0.00 0.00 0.00 47 1016.0
20260508165427 20 143 11.3 19.3 0.00 0.00 0.00 47 1016.0
20260508165320 20 215 8.0 19.3 0.00 0.00 0.00 46 1015.9
20260508165247 20 184 8.0 19.3 0.00 0.00 0.00 45 1015.9
20260508165134 20 207 8.0 19.3 0.00 0.00 0.00 46 1015.9
20260508165104 20 202 8.0 19.3 0.00 0.00 0.00 45 1015.9
20260508164817 20 209 11.3 19.3 0.00 0.00 0.00 46 1015.8
20260508164729 20 198 12.9 19.3 0.00 0.00 0.00 45 1015.8
20260508164614 20 182 12.9 19.3 0.00 0.00 0.00 48 1015.7
20260508164522 20 182 8.0 16.1 0.00 0.00 0.00 46 1015.7
20260508164449 20 191 4.8 16.1 0.00 0.00 0.00 45 1015.7
20260508164316 20 66 6.4 16.1 0.00 0.00 0.00 45 1015.9
20260508164244 20 69 8.0 16.1 0.00 0.00 0.00 45 1015.9
20260508164115 20 114 6.4 16.1 0.00 0.00 0.00 44 1015.9
20260508164022 20 140 4.8 16.1 0.00 0.00 0.00 45 1015.9
20260508163929 20 142 3.2 14.5 0.00 0.00 0.00 46 1016.0
20260508163817 20 52 6.4 14.5 0.00 0.00 0.00 47 1015.9
20260508163725 20 5 8.0 14.5 0.00 0.00 0.00 46 1015.9
20260508163614 20 24 9.7 14.5 0.00 0.00 0.00 46 1016.0
20260508163548 20 355 9.7 14.5 0.00 0.00 0.00 48 1016.0
20260508163321 20 71 6.4 19.3 0.00 0.00 0.00 48 1016.0
20260508163227 20 148 4.8 19.3 0.00 0.00 0.00 47 1015.9
20260508163115 20 57 6.4 19.3 0.00 0.00 0.00 46 1015.9
20260508163028 20 115 6.4 19.3 0.00 0.00 0.00 46 1015.9
20260508162916 20 180 6.4 19.3 0.00 0.00 0.00 46 1015.8
20260508162824 20 167 8.0 19.3 0.00 0.00 0.00 47 1015.8
20260508162712 20 133 11.3 19.3 0.00 0.00 0.00 47 1015.9
20260508162619 20 148 11.3 19.3 0.00 0.00 0.00 47 1015.9
20260508162526 20 170 11.3 24.1 0.00 0.00 0.00 47 1015.9
20260508162438 20 154 9.7 24.1 0.00 0.00 0.00 47 1015.9
20260508162324 20 158 8.0 24.1 0.00 0.00 0.00 46 1015.9
20260508162212 20 238 11.3 24.1 0.00 0.00 0.00 46 1015.9
20260508162120 20 192 12.9 24.1 0.00 0.00 0.00 47 1015.9
20260508162054 20 203 12.9 24.1 0.00 0.00 0.00 46 1015.9
20260508161829 20 143 14.5 24.1 0.00 0.00 0.00 47 1016.0
20260508161716 20 148 9.7 24.1 0.00 0.00 0.00 48 1016.1
20260508161623 20 159 4.8 19.3 0.00 0.00 0.00 50 1016.1
20260508161530 20 247 4.8 19.3 0.00 0.00 0.00 47 1016.2
20260508161418 20 205 4.8 19.3 0.00 0.00 0.00 46 1016.1
20260508161329 20 225 4.8 19.3 0.00 0.00 0.00 45 1016.1
20260508161217 20 140 9.7 19.3 0.00 0.00 0.00 46 1016.2
20260508161145 20 141 12.9 19.3 0.00 0.00 0.00 48 1016.2
20260508161012 20 133 11.3 17.7 0.00 0.00 0.00 49 1016.2
20260508160920 20 108 8.0 17.7 0.00 0.00 0.00 47 1016.2
20260508160827 20 228 6.4 17.7 0.00 0.00 0.00 48 1016.2
20260508160718 20 153 8.0 17.7 0.00 0.00 0.00 48 1016.1
20260508160645 20 154 9.7 17.7 0.00 0.00 0.00 46 1016.1
20260508160615 20 211 9.7 19.3 0.00 0.00 0.00 47 1016.1
20260508160329 20 146 8.0 19.3 0.00 0.00 0.00 47 1016.2
20260508160222 20 120 9.7 19.3 0.00 0.00 0.00 47 1016.2
20260508160129 20 130 9.7 19.3 0.00 0.00 0.00 46 1016.3
20260508160017 20 106 11.3 19.3 0.00 0.00 0.00 48 1016.4
20260508155943 20 76 11.3 19.3 0.00 0.00 0.00 49 1016.4
20260508155829 20 109 9.7 19.3 0.00 0.00 0.00 48 1016.3
20260508155717 20 113 9.7 19.3 0.00 0.00 0.00 49 1016.4
20260508155629 20 136 6.4 17.7 0.00 0.00 0.00 49 1016.4
20260508155515 20 153 6.4 17.7 0.00 0.00 0.00 49 1016.5
20260508155442 20 175 9.7 17.7 0.00 0.00 0.00 48 1016.5
20260508155329 20 130 9.7 17.7 0.00 0.00 0.00 48 1016.5
20260508155216 20 114 8.0 17.7 0.00 0.00 0.00 48 1016.5
20260508155142 20 132 6.4 19.3 0.00 0.00 0.00 47 1016.5
20260508155117 20 111 9.7 19.3 0.00 0.00 0.00 47 1016.5
20260508154830 20 76 8.0 19.3 0.00 0.00 0.00 47 1016.4
20260508154716 20 130 9.7 19.3 0.00 0.00 0.00 46 1016.4
20260508154625 20 136 8.0 19.3 0.00 0.00 0.00 47 1016.4
20260508154512 20 129 8.0 19.3 0.00 0.00 0.00 47 1016.4
20260508154423 20 86 9.7 19.3 0.00 0.00 0.00 46 1016.4
20260508154351 20 71 9.7 20.9 0.00 0.00 0.00 46 1016.4
20260508154217 20 66 9.7 20.9 0.00 0.00 0.00 45 1016.5
20260508154124 20 111 8.0 20.9 0.00 0.00 0.00 46 1016.5
20260508154033 20 162 8.0 20.9 0.00 0.00 0.00 47 1016.6
20260508153919 20 126 6.4 20.9 0.00 0.00 0.00 47 1016.5
20260508153846 20 203 6.4 20.9 0.00 0.00 0.00 46 1016.5
20260508153717 20 66 8.0 20.9 0.00 0.00 0.00 47 1016.4
20260508153625 20 85 8.0 20.9 0.00 0.00 0.00 46 1016.4
20260508153556 20 77 8.0 17.7 0.00 0.00 0.00 48 1016.4
20260508153351 19 66 9.7 17.7 0.00 0.00 0.00 48 1016.5
20260508153238 19 109 9.7 17.7 0.00 0.00 0.00 47 1016.5
20260508153128 19 130 8.0 17.7 0.00 0.00 0.00 48 1016.5
20260508153014 19 98 3.2 14.5 0.00 0.00 0.00 49 1016.5
20260508152941 19 117 3.2 16.1 0.00 0.00 0.00 50 1016.5
20260508152847 19 104 4.8 16.1 0.00 0.00 0.00 50 1016.6
20260508152714 19 137 8.0 16.1 0.00 0.00 0.00 49 1016.6
20260508152621 19 114 8.0 16.1 0.00 0.00 0.00 50 1016.6
20260508152513 19 134 8.0 16.1 0.00 0.00 0.00 50 1016.7
20260508152420 18 136 8.0 16.1 0.00 0.00 0.00 48 1016.7
20260508152347 18 109 6.4 16.1 0.00 0.00 0.00 47 1016.7
20260508152213 18 146 6.4 16.1 0.00 0.00 0.00 49 1016.6
20260508152121 18 151 4.8 16.1 0.00 0.00 0.00 49 1016.6
20260508152056 18 180 4.8 16.1 0.00 0.00 0.00 50 1016.7
20260508151830 18 98 4.8 16.1 0.00 0.00 0.00 49 1016.6
20260508151717 18 138 8.0 16.1 0.00 0.00 0.00 49 1016.6
20260508151624 18 161 8.0 16.1 0.00 0.00 0.00 48 1016.6
20260508151511 18 224 6.4 16.1 0.00 0.00 0.00 49 1016.7
20260508151423 18 167 8.0 16.1 0.00 0.00 0.00 51 1016.7
20260508151331 18 134 9.7 16.1 0.00 0.00 0.00 50 1016.7
20260508151239 19 150 12.9 16.1 0.00 0.00 0.00 51 1016.7
20260508151124 19 136 11.3 16.1 0.00 0.00 0.00 50 1016.7
20260508151012 19 163 8.0 16.1 0.00 0.00 0.00 51 1016.8
20260508150920 19 165 4.8 12.9 0.00 0.00 0.00 49 1016.8
20260508150848 19 142 3.2 12.9 0.00 0.00 0.00 50 1016.8
20260508150718 19 120 3.2 12.9 0.00 0.00 0.00 50 1016.9
20260508150645 19 146 4.8 12.9 0.00 0.00 0.00 50 1016.9
20260508150616 19 132 6.4 14.5 0.00 0.00 0.00 48 1016.8
20260508150329 19 150 4.8 16.1 0.00 0.00 0.00 50 1016.9
20260508150221 19 80 4.8 16.1 0.00 0.00 0.00 50 1016.9
20260508150128 19 120 6.4 16.1 0.00 0.00 0.00 51 1017.0
20260508150017 19 124 6.4 16.1 0.00 0.00 0.00 49 1017.1
20260508145926 19 75 6.4 16.1 0.00 0.00 0.00 50 1017.1
20260508145813 19 71 8.0 16.1 0.00 0.00 0.00 52 1017.1
20260508145721 18 94 8.0 16.1 0.00 0.00 0.00 49 1017.1
20260508145611 18 103 9.7 16.1 0.00 0.00 0.00 50 1017.1
20260508145519 18 67 8.0 16.1 0.00 0.00 0.00 49 1017.0
20260508145426 18 52 8.0 16.1 0.00 0.00 0.00 49 1017.0
20260508145313 18 74 6.4 16.1 0.00 0.00 0.00 50 1017.0
20260508145222 18 101 8.0 16.1 0.00 0.00 0.00 49 1017.0
20260508145135 18 53 9.7 16.1 0.00 0.00 0.00 49 1017.0
20260508145103 18 34 9.7 14.5 0.00 0.00 0.00 49 1017.1
20260508144817 18 82 9.7 14.5 0.00 0.00 0.00 51 1017.1
20260508144745 18 96 8.0 14.5 0.00 0.00 0.00 51 1017.1
20260508144611 18 85 6.4 14.5 0.00 0.00 0.00 49 1017.1
20260508144523 18 126 8.0 14.5 0.00 0.00 0.00 49 1017.1
20260508144431 18 207 6.4 14.5 0.00 0.00 0.00 48 1017.1
20260508144318 18 88 4.8 14.5 0.00 0.00 0.00 51 1017.2
20260508144226 18 74 4.8 14.5 0.00 0.00 0.00 52 1017.2
20260508144113 18 105 8.0 14.5 0.00 0.00 0.00 54 1017.2
20260508144024 18 119 8.0 14.5 0.00 0.00 0.00 53 1017.2
20260508143930 18 110 4.8 14.5 0.00 0.00 0.00 53 1017.1
20260508143818 18 117 4.8 14.5 0.00 0.00 0.00 53 1017.1
20260508143727 18 142 4.8 14.5 0.00 0.00 0.00 51 1017.1
20260508143634 18 84 8.0 14.5 0.00 0.00 0.00 56 1017.2
20260508143548 18 132 9.7 16.1 0.00 0.00 0.00 56 1017.2
20260508143321 17 94 11.3 16.1 0.00 0.00 0.00 54 1017.1
20260508143229 17 109 11.3 16.1 0.00 0.00 0.00 55 1017.2
20260508143118 17 111 8.0 16.1 0.00 0.00 0.00 57 1017.2
20260508143046 17 111 6.4 16.1 0.00 0.00 0.00 56 1017.2
20260508142912 17 157 6.4 16.1 0.00 0.00 0.00 55 1017.2
20260508142822 17 145 8.0 16.1 0.00 0.00 0.00 56 1017.2
20260508142730 17 144 9.7 16.1 0.00 0.00 0.00 54 1017.2
20260508142617 17 150 6.4 16.1 0.00 0.00 0.00 59 1017.3
20260508142525 17 132 4.8 12.9 0.00 0.00 0.00 58 1017.3
20260508142412 17 78 4.8 14.5 0.00 0.00 0.00 58 1017.3
20260508142340 17 126 3.2 14.5 0.00 0.00 0.00 58 1017.4
20260508142211 17 42 4.8 14.5 0.00 0.00 0.00 58 1017.3
20260508142138 17 61 4.8 14.5 0.00 0.00 0.00 58 1017.3
20260508142109 17 74 6.4 14.5 0.00 0.00 0.00 56 1017.4
20260508141822 17 123 8.0 14.5 0.00 0.00 0.00 57 1017.4
20260508141713 17 86 9.7 14.5 0.00 0.00 0.00 57 1017.3
20260508141619 17 117 9.7 14.5 0.00 0.00 0.00 57 1017.4
20260508141527 17 121 9.7 14.5 0.00 0.00 0.00 59 1017.4
20260508141414 17 155 8.0 14.5 0.00 0.00 0.00 58 1017.2
20260508141321 17 123 6.4 14.5 0.00 0.00 0.00 59 1017.2
20260508141229 17 113 3.2 8.0 0.00 0.00 0.00 59 1017.2
20260508141122 17 102 3.2 8.0 0.00 0.00 0.00 59 1017.2
20260508141030 17 360 4.8 8.0 0.00 0.00 0.00 59 1017.2
20260508140936 17 66 4.8 8.0 0.00 0.00 0.00 59 1017.2
20260508140822 17 74 4.8 11.3 0.00 0.00 0.00 61 1017.2
20260508140731 17 78 3.2 11.3 0.00 0.00 0.00 60 1017.2
20260508140637 17 83 4.8 11.3 0.00 0.00 0.00 61 1017.1
20260508140551 17 76 4.8 11.3 0.00 0.00 0.00 61 1017.1
20260508140345 17 115 4.8 11.3 0.00 0.00 0.00 62 1017.2
20260508140211 17 98 3.2 11.3 0.00 0.00 0.00 62 1017.2
20260508140119 17 67 3.2 11.3 0.00 0.00 0.00 62 1017.2
20260508140027 17 81 4.8 11.3 0.00 0.00 0.00 62 1017.2
20260508135917 17 76 4.8 11.3 0.00 0.00 0.00 63 1017.2
20260508135824 17 115 3.2 11.3 0.00 0.00 0.00 65 1017.2
20260508135712 16 26 1.6 11.3 0.00 0.00 0.00 65 1017.2
20260508135619 16 73 1.6 11.3 0.00 0.00 0.00 63 1017.2
20260508135527 16 93 3.2 11.3 0.00 0.00 0.00 63 1017.2
20260508135419 16 119 4.8 11.3 0.00 0.00 0.00 63 1017.2
20260508135326 16 105 4.8 11.3 0.00 0.00 0.00 63 1017.2
20260508135213 16 132 4.8 11.3 0.00 0.00 0.00 63 1017.2
20260508135121 16 112 4.8 11.3 0.00 0.00 0.00 63 1017.2
20260508135052 16 109 4.8 11.3 0.00 0.00 0.00 65 1017.2
20260508134830 16 99 4.8 11.3 0.00 0.00 0.00 65 1017.1
20260508134717 16 101 4.8 11.3 0.00 0.00 0.00 63 1017.1
20260508134625 16 149 4.8 8.0 0.00 0.00 0.00 64 1017.1
20260508134513 16 151 3.2 6.4 0.00 0.00 0.00 65 1017.1
20260508134419 16 148 3.2 6.4 0.00 0.00 0.00 64 1017.1
20260508134346 16 115 3.2 6.4 0.00 0.00 0.00 65 1017.1
20260508134216 16 82 3.2 6.4 0.00 0.00 0.00 66 1017.2
20260508134123 16 67 3.2 6.4 0.00 0.00 0.00 66 1017.2
20260508134051 16 77 3.2 6.4 0.00 0.00 0.00 66 1017.2
20260508133918 16 65 3.2 6.4 0.00 0.00 0.00 65 1017.2
20260508133826 16 144 3.2 6.4 0.00 0.00 0.00 66 1017.2
20260508133717 16 149 3.2 9.7 0.00 0.00 0.00 66 1017.1
20260508133623 16 128 3.2 9.7 0.00 0.00 0.00 65 1017.1
20260508133554 16 128 3.2 9.7 0.00 0.00 0.00 65 1017.2
20260508133348 16 167 3.2 9.7 0.00 0.00 0.00 65 1017.3
20260508133214 16 119 3.2 9.7 0.00 0.00 0.00 64 1017.3
20260508133125 16 166 3.2 9.7 0.00 0.00 0.00 66 1017.3
20260508133013 16 111 3.2 9.7 0.00 0.00 0.00 67 1017.4
20260508132921 16 67 3.2 9.7 0.00 0.00 0.00 68 1017.4
20260508132829 16 133 3.2 9.7 0.00 0.00 0.00 69 1017.4
20260508132717 15 107 3.2 6.4 0.00 0.00 0.00 69 1017.4
20260508132625 15 107 3.2 6.4 0.00 0.00 0.00 69 1017.4
20260508132516 15 101 3.2 6.4 0.00 0.00 0.00 69 1017.5
20260508132423 15 117 3.2 6.4 0.00 0.00 0.00 70 1017.5
20260508132311 15 173 1.6 6.4 0.00 0.00 0.00 69 1017.5
20260508132220 15 167 1.6 6.4 0.00 0.00 0.00 68 1017.5
20260508132127 15 190 1.6 8.0 0.00 0.00 0.00 69 1017.4
20260508132102 15 132 3.2 8.0 0.00 0.00 0.00 70 1017.4
20260508131815 15 110 3.2 8.0 0.00 0.00 0.00 69 1017.4
20260508131722 15 153 3.2 8.0 0.00 0.00 0.00 71 1017.4
20260508131630 15 123 3.2 8.0 0.00 0.00 0.00 71 1017.3
20260508131537 15 111 3.2 8.0 0.00 0.00 0.00 70 1017.3
20260508131428 15 112 3.2 8.0 0.00 0.00 0.00 70 1017.3
20260508131316 15 112 3.2 8.0 0.00 0.00 0.00 70 1017.4
20260508131224 15 132 4.8 8.0 0.00 0.00 0.00 70 1017.4
20260508131130 15 156 6.4 8.0 0.00 0.00 0.00 71 1017.4
20260508131017 15 156 6.4 9.7 0.00 0.00 0.00 71 1017.4
20260508130927 15 156 4.8 8.0 0.00 0.00 0.00 71 1017.4
20260508130814 15 113 4.8 8.0 0.00 0.00 0.00 73 1017.2
20260508130742 15 126 4.8 8.0 0.00 0.00 0.00 72 1017.2
20260508130628 14 119 4.8 8.0 0.00 0.00 0.00 72 1017.2
20260508130559 14 127 4.8 8.0 0.00 0.00 0.00 74 1017.2
20260508130318 14 136 3.2 8.0 0.00 0.00 0.00 74 1017.2
20260508130224 14 150 1.6 8.0 0.00 0.00 0.00 75 1017.2
20260508130111 14 101 1.6 8.0 0.00 0.00 0.00 75 1017.0
20260508130019 14 115 3.2 8.0 0.00 0.00 0.00 74 1017.1
20260508125926 14 112 4.8 8.0 0.00 0.00 0.00 74 1017.1
20260508125834 14 115 4.8 8.0 0.00 0.00 0.00 76 1017.1
20260508125724 13 141 4.8 8.0 0.00 0.00 0.00 75 1017.1
20260508125651 13 142 4.8 8.0 0.00 0.00 0.00 76 1017.1
20260508125518 13 128 4.8 8.0 0.00 0.00 0.00 76 1017.0
20260508125426 13 106 4.8 8.0 0.00 0.00 0.00 76 1017.0
20260508125334 13 137 4.8 8.0 0.00 0.00 0.00 76 1017.0
20260508125220 13 137 6.4 8.0 0.00 0.00 0.00 76 1017.0
20260508125113 13 141 6.4 8.0 0.00 0.00 0.00 77 1017.0
20260508125045 13 135 6.4 9.7 0.00 0.00 0.00 77 1017.0
20260508124817 13 146 3.2 6.4 0.00 0.00 0.00 79 1016.9
20260508124726 13 126 1.6 6.4 0.00 0.00 0.00 79 1016.9
20260508124618 13 126 3.2 6.4 0.00 0.00 0.00 79 1017.0
20260508124525 13 126 4.8 6.4 0.00 0.00 0.00 80 1017.0
20260508124413 12 141 4.8 6.4 0.00 0.00 0.00 80 1016.9
20260508124341 12 140 4.8 6.4 0.00 0.00 0.00 81 1016.9
20260508124226 12 115 3.2 4.8 0.00 0.00 0.00 82 1016.9
20260508124133 12 104 3.2 4.8 0.00 0.00 0.00 83 1016.8
20260508124018 12 104 3.2 4.8 0.00 0.00 0.00 84 1016.9
20260508123949 12 137 1.6 4.8 0.00 0.00 0.00 85 1016.9
20260508123815 12 101 0.0 3.2 0.00 0.00 0.00 85 1016.9
20260508123721 11 49 0.0 0.0 0.00 0.00 0.00 86 1016.9
20260508123628 11 49 0.0 0.0 0.00 0.00 0.00 87 1016.9
20260508123557 11 49 0.0 0.0 0.00 0.00 0.00 89 1016.9
20260508123334 11 49 0.0 0.0 0.00 0.00 0.00 88 1017.0
20260508123241 11 44 0.0 0.0 0.00 0.00 0.00 88 1017.0
20260508123127 11 24 0.0 0.0 0.00 0.00 0.00 88 1017.0
20260508123015 11 24 0.0 0.0 0.00 0.00 0.00 89 1017.1
20260508122924 11 24 0.0 0.0 0.00 0.00 0.00 89 1017.1
20260508122851 11 24 0.0 0.0 0.00 0.00 0.00 89 1017.1
20260508122720 11 24 0.0 0.0 0.00 0.00 0.00 90 1017.1
20260508122628 10 24 0.0 0.0 0.00 0.00 0.00 90 1017.1
20260508122515 10 24 0.0 0.0 0.00 0.00 0.00 90 1017.1
20260508122422 10 24 0.0 0.0 0.00 0.00 0.00 91 1017.1
20260508122330 10 24 0.0 1.6 0.00 0.00 0.00 91 1017.1
20260508122238 10 24 0.0 3.2 0.00 0.00 0.00 92 1017.1
20260508122128 10 24 0.0 3.2 0.00 0.00 0.00 92 1017.1
20260508122059 10 24 0.0 3.2 0.00 0.00 0.00 92 1017.2
20260508121813 10 24 0.0 3.2 0.00 0.00 0.00 93 1017.0
20260508121742 10 38 0.0 3.2 0.00 0.00 0.00 92 1017.0
20260508121628 10 38 0.0 4.8 0.00 0.00 0.00 93 1017.1
20260508121519 10 37 1.6 4.8 0.00 0.00 0.00 93 1017.1
20260508121426 10 26 1.6 4.8 0.00 0.00 0.00 93 1017.1
20260508121312 10 5 1.6 4.8 0.00 0.00 0.00 93 1017.1
20260508121220 10 34 1.6 4.8 0.00 0.00 0.00 93 1017.1
20260508121126 9 11 1.6 4.8 0.00 0.00 0.00 93 1017.1
20260508121035 9 19 0.0 4.8 0.00 0.00 0.00 93 1017.1
20260508120925 9 18 1.6 4.8 0.00 0.00 0.00 93 1017.1
20260508120812 9 24 1.6 4.8 0.00 0.00 0.00 93 1017.1
20260508120719 9 34 0.0 3.2 0.00 0.00 0.00 93 1017.1
20260508120626 9 9 0.0 3.2 0.00 0.00 0.00 93 1017.1
20260508120601 9 9 1.6 3.2 0.00 0.00 0.00 93 1017.1
20260508120314 9 9 1.6 3.2 0.00 0.00 0.00 93 1017.1
20260508120242 9 9 1.6 3.2 0.00 0.00 0.00 93 1017.1
20260508120128 9 344 0.0 3.2 0.00 0.00 0.00 93 1017.1
20260508120016 9 13 0.0 3.2 0.00 0.00 0.00 93 1017.1
20260508115923 9 13 0.0 3.2 0.00 0.00 0.00 93 1017.1
20260508115814 8 13 1.6 3.2 0.00 0.00 0.00 93 1017.1
20260508115723 8 13 1.6 4.8 0.00 0.00 0.00 93 1017.1
20260508115651 8 13 1.6 4.8 0.00 0.00 0.00 93 1017.1
20260508115517 8 13 0.0 4.8 0.00 0.00 0.00 93 1017.1
20260508115423 8 13 0.0 4.8 0.00 0.00 0.00 93 1017.1
20260508115330 8 13 0.0 4.8 0.00 0.00 0.00 93 1017.1
20260508115221 8 13 1.6 4.8 0.00 0.00 0.00 93 1017.1
20260508115149 8 13 1.6 4.8 0.00 0.00 0.00 93 1017.0
20260508115058 8 13 1.6 4.8 0.00 0.00 0.00 93 1017.1
20260508114812 8 360 1.6 4.8 0.00 0.00 0.00 93 1016.9
20260508114720 8 348 1.6 4.8 0.00 0.00 0.00 93 1016.9
20260508114611 8 348 1.6 4.8 0.00 0.00 0.00 92 1017.0
20260508114519 8 348 0.0 4.8 0.00 0.00 0.00 92 1016.9
20260508114426 8 348 0.0 4.8 0.00 0.00 0.00 92 1016.9
20260508114315 8 348 1.6 4.8 0.00 0.00 0.00 92 1016.8
20260508114222 8 348 1.6 4.8 0.00 0.00 0.00 92 1016.8
20260508114112 8 348 3.2 4.8 0.00 0.00 0.00 92 1016.8
20260508114019 8 348 3.2 4.8 0.00 0.00 0.00 92 1016.8
20260508113947 8 348 1.6 3.2 0.00 0.00 0.00 92 1016.8
20260508113834 8 319 1.6 3.2 0.00 0.00 0.00 92 1016.7
20260508113720 8 319 1.6 3.2 0.00 0.00 0.00 92 1016.7
20260508113647 8 319 1.6 3.2 0.00 0.00 0.00 92 1016.7
20260508113602 8 319 1.6 3.2 0.00 0.00 0.00 92 1016.7
20260508113314 8 319 1.6 3.2 0.00 0.00 0.00 92 1016.7
20260508113221 8 319 1.6 1.6 0.00 0.00 0.00 92 1016.7
20260508113130 8 319 1.6 1.6 0.00 0.00 0.00 92 1016.7
20260508113037 8 319 1.6 1.6 0.00 0.00 0.00 92 1016.6
20260508112923 8 319 1.6 1.6 0.00 0.00 0.00 92 1016.6
20260508112836 8 319 1.6 1.6 0.00 0.00 0.00 92 1016.7
20260508112723 8 319 1.6 1.6 0.00 0.00 0.00 92 1016.7
20260508112629 8 319 1.6 1.6 0.00 0.00 0.00 92 1016.7
20260508112518 8 319 0.0 1.6 0.00 0.00 0.00 92 1016.7
20260508112445 8 319 0.0 1.6 0.00 0.00 0.00 92 1016.7
20260508112311 8 319 0.0 1.6 0.00 0.00 0.00 92 1016.5
20260508112223 8 319 0.0 1.6 0.00 0.00 0.00 92 1016.5
20260508112152 8 319 0.0 3.2 0.00 0.00 0.00 92 1016.6
20260508112102 8 319 0.0 3.2 0.00 0.00 0.00 92 1016.5
20260508111814 8 319 0.0 3.2 0.00 0.00 0.00 91 1016.6
20260508111722 8 319 0.0 3.2 0.00 0.00 0.00 91 1016.6
20260508111614 8 319 0.0 3.2 0.00 0.00 0.00 91 1016.5
20260508111521 8 319 0.0 3.2 0.00 0.00 0.00 91 1016.5
20260508111448 8 319 0.0 3.2 0.00 0.00 0.00 91 1016.4
20260508111313 8 319 1.6 3.2 0.00 0.00 0.00 91 1016.4
20260508111221 8 319 1.6 3.2 0.00 0.00 0.00 91 1016.4
20260508111149 8 319 3.2 3.2 0.00 0.00 0.00 91 1016.3
20260508111019 8 317 1.6 3.2 0.00 0.00 0.00 91 1016.3
20260508110926 8 312 1.6 3.2 0.00 0.00 0.00 91 1016.3
20260508110814 8 299 0.0 0.0 0.00 0.00 0.00 91 1016.2
20260508110722 8 299 0.0 0.0 0.00 0.00 0.00 91 1016.2
20260508110604 8 299 0.0 0.0 0.00 0.00 0.00 92 1016.1
20260508110337 8 299 0.0 0.0 0.00 0.00 0.00 92 1016.1
20260508110244 8 299 0.0 0.0 0.00 0.00 0.00 91 1016.1
20260508110130 8 299 0.0 0.0 0.00 0.00 0.00 91 1016.1
20260508110017 8 299 0.0 1.6 0.00 0.00 0.00 91 1016.0
20260508105925 8 299 0.0 1.6 0.00 0.00 0.00 91 1016.0
20260508105816 8 299 0.0 1.6 0.00 0.00 0.00 91 1016.1
20260508105723 8 299 0.0 1.6 0.00 0.00 0.00 91 1016.1
20260508105611 8 299 0.0 3.2 0.00 0.00 0.00 91 1016.0
20260508105517 8 299 0.0 3.2 0.00 0.00 0.00 91 1016.0
20260508105426 8 299 0.0 3.2 0.00 0.00 0.00 91 1016.0
20260508105317 8 299 0.0 3.2 0.00 0.00 0.00 91 1016.0
20260508105224 8 299 0.0 3.2 0.00 0.00 0.00 91 1016.0
20260508105132 8 299 0.0 3.2 0.00 0.00 0.00 91 1016.0
20260508105104 8 299 1.6 3.2 0.00 0.00 0.00 91 1015.9
20260508104837 8 299 1.6 3.2 0.00 0.00 0.00 91 1015.9
20260508104727 8 299 1.6 3.2 0.00 0.00 0.00 91 1015.9
20260508104614 8 299 0.0 3.2 0.00 0.00 0.00 91 1015.9
20260508104521 8 310 0.0 3.2 0.00 0.00 0.00 91 1015.9
20260508104429 8 310 0.0 0.0 0.00 0.00 0.00 91 1016.0
20260508104317 8 310 0.0 0.0 0.00 0.00 0.00 91 1015.9
20260508104229 8 310 0.0 0.0 0.00 0.00 0.00 91 1015.9
20260508104116 8 311 0.0 0.0 0.00 0.00 0.00 91 1015.9
20260508104023 8 311 0.0 0.0 0.00 0.00 0.00 90 1015.9
20260508103911 8 311 0.0 0.0 0.00 0.00 0.00 90 1015.7
20260508103819 8 311 0.0 0.0 0.00 0.00 0.00 90 1015.7
20260508103726 8 311 0.0 0.0 0.00 0.00 0.00 90 1015.7
20260508103636 8 311 0.0 0.0 0.00 0.00 0.00 90 1015.8
20260508103606 8 311 0.0 0.0 0.00 0.00 0.00 90 1015.7
20260508103318 8 311 0.0 0.0 0.00 0.00 0.00 90 1015.7
20260508103227 8 311 0.0 0.0 0.00 0.00 0.00 90 1015.7
20260508103119 8 311 0.0 0.0 0.00 0.00 0.00 90 1015.6
20260508103026 8 311 0.0 0.0 0.00 0.00 0.00 90 1015.6
20260508102934 8 311 0.0 0.0 0.00 0.00 0.00 90 1015.6
20260508102821 8 311 0.0 0.0 0.00 0.00 0.00 90 1015.6
20260508102748 8 311 0.0 0.0 0.00 0.00 0.00 90 1015.5
20260508102614 8 311 0.0 0.0 0.00 0.00 0.00 90 1015.6
20260508102521 8 311 0.0 0.0 0.00 0.00 0.00 90 1015.6
20260508102411 9 311 0.0 0.0 0.00 0.00 0.00 90 1015.5
20260508102339 9 311 0.0 0.0 0.00 0.00 0.00 90 1015.6
20260508102224 9 311 0.0 0.0 0.00 0.00 0.00 90 1015.6
20260508102111 9 311 0.0 0.0 0.00 0.00 0.00 89 1015.5
20260508102047 9 311 0.0 0.0 0.00 0.00 0.00 89 1015.5
20260508101821 9 311 0.0 0.0 0.00 0.00 0.00 89 1015.5
20260508101728 9 311 0.0 0.0 0.00 0.00 0.00 89 1015.5
20260508101635 9 311 0.0 0.0 0.00 0.00 0.00 89 1015.6
20260508101522 9 312 0.0 0.0 0.00 0.00 0.00 89 1015.6
20260508101430 9 316 0.0 0.0 0.00 0.00 0.00 89 1015.6
20260508101321 9 316 0.0 0.0 0.00 0.00 0.00 89 1015.5
20260508101230 9 316 0.0 0.0 0.00 0.00 0.00 89 1015.5
20260508101118 9 316 0.0 0.0 0.00 0.00 0.00 89 1015.5
20260508101026 9 316 0.0 0.0 0.00 0.00 0.00 89 1015.5
20260508100933 9 316 0.0 0.0 0.00 0.00 0.00 89 1015.6
20260508100821 9 317 0.0 0.0 0.00 0.00 0.00 89 1015.6
20260508100712 9 318 0.0 0.0 0.00 0.00 0.00 89 1015.6
20260508100620 9 318 0.0 0.0 0.00 0.00 0.00 89 1015.6
20260508100551 9 319 0.0 0.0 0.00 0.00 0.00 89 1015.6
20260508100324 9 322 0.0 0.0 0.00 0.00 0.00 89 1015.5
20260508100251 9 322 0.0 0.0 0.00 0.00 0.00 89 1015.5
20260508100122 9 322 0.0 0.0 0.00 0.00 0.00 89 1015.5
20260508100029 9 322 0.0 0.0 0.00 0.00 0.00 89 1015.5
20260508095937 9 322 0.0 0.0 0.00 0.00 0.00 89 1015.5
20260508095824 9 322 0.0 0.0 0.00 0.00 0.00 88 1015.5
20260508095713 9 322 0.0 0.0 0.00 0.00 0.00 88 1015.5
20260508095621 9 322 0.0 0.0 0.00 0.00 0.00 88 1015.5
20260508095552 9 322 0.0 0.0 0.00 0.00 0.00 88 1015.6
20260508095419 9 322 0.0 0.0 0.00 0.00 0.00 88 1015.4
20260508095344 9 322 0.0 0.0 0.00 0.00 0.00 88 1015.4
20260508095231 9 322 0.0 0.0 0.00 0.00 0.00 88 1015.3
20260508095118 9 322 0.0 0.0 0.00 0.00 0.00 88 1015.4
20260508095054 9 322 0.0 0.0 0.00 0.00 0.00 89 1015.4
20260508094828 9 322 0.0 0.0 0.00 0.00 0.00 89 1015.3
20260508094736 9 322 0.0 0.0 0.00 0.00 0.00 89 1015.3
20260508094622 9 322 0.0 0.0 0.00 0.00 0.00 89 1015.3
20260508094529 9 322 0.0 0.0 0.00 0.00 0.00 89 1015.3
20260508094437 9 322 0.0 0.0 0.00 0.03 0.00 88 1015.3
20260508094328 9 322 0.0 0.0 0.00 0.03 0.00 88 1015.3
20260508094216 9 322 0.0 0.0 0.00 0.03 0.00 88 1015.3
20260508094122 9 322 0.0 1.6 0.00 0.03 0.00 88 1015.3
20260508094030 9 322 0.0 1.6 0.00 0.03 0.00 88 1015.3
20260508093916 9 322 0.0 1.6 0.00 0.03 0.00 88 1015.3
20260508093822 9 322 0.0 1.6 0.00 0.03 0.00 88 1015.3
20260508093734 9 322 0.0 1.6 0.00 0.03 0.00 88 1015.2
20260508093641 9 322 0.0 1.6 0.00 0.03 0.00 88 1015.2
20260508093612 9 322 0.0 1.6 0.00 0.03 0.00 88 1015.2
20260508093325 9 322 0.0 1.6 0.00 0.03 0.00 88 1015.2
20260508093213 9 340 0.0 0.0 0.00 0.03 0.00 88 1015.1
20260508093125 9 340 0.0 3.2 0.00 0.03 0.00 88 1015.1
20260508093032 9 340 0.0 3.2 0.00 0.03 0.00 88 1015.1
20260508092919 9 340 0.0 4.8 0.00 0.03 0.00 88 1015.1
20260508092826 9 340 0.0 4.8 0.00 0.03 0.00 88 1015.1
20260508092713 10 340 0.0 4.8 0.00 0.03 0.00 88 1015.2
20260508092621 9 340 0.0 4.8 0.00 0.03 0.00 88 1015.2
20260508092512 9 340 0.0 4.8 0.00 0.03 0.00 88 1015.2
20260508092420 9 340 0.0 4.8 0.00 0.03 0.00 88 1015.2
20260508092327 10 340 1.6 4.8 0.00 0.03 0.00 88 1015.1
20260508092215 10 340 3.2 4.8 0.00 0.03 0.00 88 1015.1
20260508092122 10 337 3.2 4.8 0.00 0.03 0.00 88 1015.1
20260508092057 10 331 3.2 4.8 0.00 0.03 0.00 88 1015.2
20260508091830 9 327 3.2 4.8 0.00 0.03 0.00 88 1015.2
20260508091717 9 333 3.2 4.8 0.00 0.03 0.00 88 1015.2
20260508091645 10 333 3.2 4.8 0.00 0.03 0.00 88 1015.2
20260508091512 10 332 3.2 4.8 0.00 0.03 0.00 88 1015.1
20260508091443 10 341 1.6 4.8 0.00 0.03 0.00 88 1015.1
20260508091350 10 336 1.6 4.8 0.00 0.03 0.00 88 1015.1
20260508091216 10 338 1.6 4.8 0.00 0.03 0.00 88 1015.1
20260508091123 10 339 1.6 4.8 0.00 0.03 0.00 88 1015.1
20260508091011 10 333 3.2 4.8 0.00 0.03 0.00 87 1015.1
20260508090918 10 333 3.2 4.8 0.00 0.03 0.00 87 1015.1
20260508090829 10 346 3.2 4.8 0.00 0.03 0.00 87 1015.1
20260508090716 10 355 1.6 4.8 0.00 0.03 0.00 87 1015.1
20260508090622 10 340 1.6 4.8 0.00 0.03 0.00 87 1015.1
20260508090553 10 340 1.6 6.4 0.00 0.03 0.00 87 1015.1
20260508090346 10 340 1.6 6.4 0.00 0.03 0.00 87 1015.1
20260508090218 10 340 3.2 6.4 0.00 0.03 0.00 87 1015.1
20260508090126 10 5 3.2 6.4 0.00 0.03 0.00 87 1015.1
20260508090013 10 348 3.2 6.4 0.00 0.03 0.00 87 1015.1
20260508085921 10 336 3.2 6.4 0.00 0.03 0.00 87 1015.1
20260508085828 10 336 4.8 6.4 0.00 0.03 0.00 87 1015.1
20260508085720 10 341 4.8 6.4 0.00 0.03 0.00 87 1015.0
20260508085628 10 339 3.2 6.4 0.00 0.03 0.00 87 1015.2
20260508085515 10 355 3.2 6.4 0.00 0.03 0.00 87 1015.1
20260508085422 10 344 3.2 6.4 0.00 0.03 0.00 87 1015.1
20260508085330 10 344 3.2 6.4 0.00 0.03 0.00 87 1015.1
20260508085218 10 347 4.8 6.4 0.00 0.03 0.00 87 1015.1
20260508085150 10 345 4.8 6.4 0.00 0.03 0.00 87 1015.1
20260508085100 10 348 4.8 8.0 0.00 0.03 0.00 87 1015.0
20260508084814 10 346 4.8 8.0 0.00 0.03 0.00 87 1015.0
20260508084721 10 346 4.8 8.0 0.00 0.03 0.00 87 1015.0
20260508084613 10 344 4.8 8.0 0.00 0.03 0.00 87 1015.0
20260508084519 10 342 4.8 8.0 0.00 0.03 0.00 87 1015.0
20260508084445 10 340 4.8 8.0 0.00 0.03 0.00 87 1015.0
20260508084312 10 338 4.8 8.0 0.00 0.66 0.00 87 1015.0
20260508084240 10 340 4.8 6.4 0.00 0.66 0.00 87 1015.1
20260508084128 10 336 4.8 6.4 0.00 0.66 0.00 87 1015.1
20260508084015 10 348 4.8 6.4 0.00 0.66 0.00 87 1015.0
20260508083929 10 331 4.8 6.4 0.00 0.66 0.00 87 1015.0
20260508083815 10 348 4.8 6.4 0.00 0.66 0.00 87 1015.0
20260508083722 10 349 4.8 6.4 0.00 0.66 0.00 87 1015.0
20260508083630 10 342 4.8 6.4 0.00 0.66 0.00 88 1015.0
20260508083601 10 346 4.8 6.4 0.00 0.66 0.00 88 1015.0
20260508083318 10 331 4.8 6.4 0.00 0.66 0.00 89 1014.9
20260508083225 10 344 4.8 6.4 0.00 0.66 0.00 88 1014.9
20260508083114 10 348 4.8 6.4 0.00 0.66 0.00 89 1015.0
20260508083021 10 340 4.8 6.4 0.00 0.66 0.00 89 1015.0
20260508082946 10 355 4.8 6.4 0.00 0.66 0.00 89 1014.9
20260508082818 10 355 3.2 6.4 0.00 0.66 0.00 89 1014.9
20260508082725 10 360 3.2 6.4 0.00 0.66 0.00 88 1014.9
20260508082632 10 355 3.2 6.4 0.00 0.66 0.00 89 1015.0
20260508082519 10 5 3.2 6.4 0.00 0.66 0.00 89 1015.0
20260508082427 10 355 3.2 6.4 0.00 0.66 0.00 88 1014.9
20260508082315 10 355 3.2 8.0 0.00 0.66 0.00 88 1014.9
20260508082226 10 335 3.2 8.0 0.00 0.66 0.00 88 1014.9
20260508082114 10 15 3.2 8.0 0.00 0.66 0.00 87 1014.9
20260508082045 10 360 4.8 8.0 0.00 0.66 0.00 87 1014.9
20260508081818 10 350 4.8 8.0 0.00 0.66 0.00 85 1014.9
20260508081725 10 346 4.8 8.0 0.00 0.66 0.00 85 1014.9
20260508081616 10 344 4.8 8.0 0.00 0.66 0.00 85 1015.0
20260508081525 10 346 4.8 8.0 0.00 0.66 0.00 85 1015.0
20260508081412 10 339 4.8 8.0 0.00 0.66 0.00 85 1015.0
20260508081320 10 355 4.8 8.0 0.00 0.66 0.00 85 1015.0
20260508081227 10 343 4.8 8.0 0.00 0.66 0.00 85 1014.9
20260508081117 10 345 4.8 8.0 0.00 0.66 0.00 85 1014.9
20260508081025 10 346 3.2 8.0 0.00 0.66 0.00 85 1014.9
20260508080912 10 344 3.2 8.0 0.00 0.66 0.00 85 1014.9
20260508080820 10 351 4.8 8.0 0.00 0.66 0.00 85 1014.9
20260508080727 10 355 4.8 8.0 0.00 0.66 0.00 85 1014.8
20260508080619 10 355 4.8 8.0 0.00 0.66 0.00 85 1014.8
20260508080550 10 355 4.8 8.0 0.00 0.66 0.00 85 1014.8
20260508080323 10 342 4.8 6.4 0.00 0.66 0.00 85 1014.9
20260508080211 10 346 4.8 6.4 0.00 0.66 0.00 85 1014.9
20260508080118 10 346 3.2 6.4 0.00 0.66 0.00 85 1014.9
20260508080029 10 355 3.2 6.4 0.00 0.66 0.00 85 1014.9
20260508075916 10 355 4.8 6.4 0.00 0.66 0.00 85 1014.8
20260508075843 10 351 3.2 6.4 0.00 0.66 0.00 85 1014.8
20260508075729 10 12 4.8 6.4 0.00 0.66 0.00 85 1014.8
20260508075616 11 5 4.8 9.7 0.00 0.66 0.00 85 1014.9
20260508075523 11 5 3.2 9.7 0.00 0.66 0.00 85 1014.9
20260508075436 11 5 4.8 9.7 0.00 0.66 0.00 84 1014.8
20260508075323 11 355 4.8 9.7 0.00 0.66 0.00 84 1014.8
20260508075230 11 355 4.8 9.7 0.00 0.66 0.00 84 1014.8
20260508075137 11 355 4.8 9.7 0.00 0.66 0.00 84 1014.8
20260508075108 11 355 4.8 9.7 0.00 0.66 0.00 84 1014.8
20260508074845 11 5 6.4 9.7 0.00 0.66 0.00 84 1014.7
20260508074711 11 5 4.8 9.7 0.00 0.66 0.00 84 1014.6
20260508074620 11 18 4.8 9.7 0.00 0.66 0.00 84 1014.6
20260508074527 11 27 6.4 9.7 0.00 0.66 0.00 84 1014.8
20260508074414 11 11 6.4 9.7 0.00 0.79 0.00 84 1014.8
20260508074322 11 5 6.4 9.7 0.00 0.79 0.00 84 1014.8
20260508074234 11 15 6.4 9.7 0.00 0.79 0.00 84 1015.0
20260508074121 11 347 6.4 9.7 0.00 0.79 0.00 84 1015.0
20260508074029 11 5 6.4 9.7 0.00 0.79 0.00 84 1015.0
20260508073936 11 351 6.4 9.7 0.00 0.79 0.00 84 1015.0
20260508073824 11 345 6.4 9.7 0.00 0.79 0.00 84 1015.0
20260508073712 11 355 6.4 9.7 0.00 0.79 0.00 84 1015.0
20260508073624 11 351 6.4 9.7 0.00 0.79 0.00 84 1015.0
20260508073554 11 341 6.4 9.7 0.00 0.79 0.00 84 1015.1
20260508073326 11 349 6.4 9.7 0.00 0.79 0.00 84 1015.0
20260508073214 11 345 6.4 8.0 0.00 0.79 0.00 84 1015.0
20260508073126 11 355 6.4 8.0 0.00 0.79 0.00 83 1015.0
20260508073033 11 339 4.8 8.0 0.00 0.79 0.00 83 1014.9
20260508072920 11 344 4.8 8.0 0.00 0.79 0.00 83 1014.9
20260508072827 11 355 4.8 8.0 0.00 0.79 0.00 84 1014.9
20260508072716 11 355 6.4 8.0 0.00 0.79 0.00 84 1014.9
20260508072624 11 335 6.4 8.0 0.00 0.79 0.00 84 1014.9
20260508072515 11 336 6.4 8.0 0.00 0.79 0.00 84 1015.0
20260508072423 11 335 6.4 8.0 0.00 0.79 0.00 84 1015.0
20260508072330 11 355 6.4 8.0 0.00 0.79 0.00 84 1015.0
20260508072218 11 347 4.8 8.0 0.00 0.79 0.00 84 1015.0
20260508072124 11 331 4.8 8.0 0.00 0.79 0.00 84 1015.0
20260508072058 11 344 4.8 6.4 0.00 0.79 0.00 84 1015.0
20260508071812 11 343 4.8 6.4 0.00 0.79 0.00 84 1015.0
20260508071721 11 344 3.2 6.4 0.00 0.79 0.00 84 1015.0
20260508071627 11 348 3.2 6.4 0.00 0.79 0.00 84 1015.0
20260508071515 11 360 3.2 6.4 0.00 0.79 0.00 84 1014.9
20260508071428 11 333 3.2 6.4 0.00 0.79 0.00 84 1014.9
20260508071315 11 350 3.2 4.8 0.00 0.79 0.00 84 1015.0
20260508071243 11 5 4.8 4.8 0.00 0.79 0.00 84 1015.0
20260508071150 11 9 3.2 4.8 0.00 0.79 0.00 84 1015.0
20260508071037 11 348 3.2 4.8 0.00 0.79 0.00 84 1015.0
20260508070923 11 355 3.2 4.8 0.00 0.79 0.00 84 1015.0
20260508070814 11 341 3.2 4.8 0.00 0.79 0.00 84 1015.1
20260508070722 11 336 3.2 4.8 0.00 0.79 0.00 84 1015.1
20260508070630 11 338 3.2 4.8 0.00 0.79 0.00 84 1015.0
20260508070559 11 346 3.2 4.8 0.00 0.79 0.00 84 1015.1
20260508070313 11 348 3.2 4.8 0.00 0.79 0.00 83 1015.2
20260508070225 11 342 3.2 4.8 0.00 0.79 0.00 83 1015.2
20260508070133 11 344 3.2 4.8 0.00 0.79 0.00 83 1015.2
20260508070020 11 348 3.2 4.8 0.00 0.79 0.00 83 1015.2
20260508065927 11 339 3.2 4.8 0.00 0.79 0.00 83 1015.2
20260508065835 11 348 3.2 4.8 0.00 0.79 0.00 83 1015.2
20260508065721 11 346 3.2 4.8 0.00 0.79 0.00 83 1015.2
20260508065612 11 346 3.2 4.8 0.00 0.79 0.00 83 1015.2
20260508065519 11 342 3.2 4.8 0.00 0.79 0.00 83 1015.2
20260508065427 11 355 3.2 4.8 0.00 0.79 0.00 83 1015.2
20260508065314 11 355 3.2 4.8 0.00 0.79 0.00 83 1015.2
20260508065221 11 348 3.2 4.8 0.00 0.79 0.00 83 1015.2
20260508065128 11 355 1.6 4.8 0.00 0.79 0.00 84 1015.1
20260508065103 11 346 1.6 4.8 0.00 0.79 0.00 83 1015.1
20260508064817 11 345 3.2 6.4 0.00 0.79 0.00 84 1015.1
20260508064723 11 351 3.2 6.4 0.00 0.79 0.00 84 1015.1
20260508064611 11 355 3.2 6.4 0.00 0.79 0.00 84 1015.2
20260508064542 11 355 3.2 6.4 0.00 0.79 0.00 84 1015.2
20260508064326 11 5 3.2 6.4 0.00 0.79 0.00 84 1015.2
20260508064213 11 9 3.2 6.4 0.00 0.79 0.00 84 1015.2
20260508064121 11 13 3.2 6.4 0.00 0.79 0.00 84 1015.2
20260508064028 11 9 3.2 6.4 0.00 0.79 0.00 84 1015.1
20260508063919 11 5 3.2 6.4 0.00 0.79 0.00 84 1015.2
20260508063827 11 9 3.2 6.4 0.00 0.79 0.00 84 1015.1
20260508063713 11 355 3.2 4.8 0.00 0.79 0.00 84 1015.2
20260508063621 11 13 3.2 4.8 0.00 0.79 0.00 84 1015.2
20260508063552 11 14 3.2 4.8 0.00 0.79 0.00 84 1015.3
20260508063330 11 360 3.2 4.8 0.00 0.79 0.00 83 1015.3
20260508063218 11 5 3.2 4.8 0.00 0.79 0.00 83 1015.2
20260508063125 11 5 3.2 4.8 0.00 0.79 0.00 83 1015.2
20260508063012 11 360 1.6 4.8 0.00 0.79 0.00 83 1015.3
20260508062919 11 24 1.6 4.8 0.00 0.79 0.00 83 1015.4
20260508062811 11 30 1.6 6.4 0.00 0.79 0.00 82 1015.4
20260508062718 11 22 1.6 6.4 0.00 0.79 0.00 83 1015.3
20260508062626 11 14 1.6 6.4 0.00 0.79 0.00 82 1015.3
20260508062514 11 15 1.6 6.4 0.00 0.79 0.00 82 1015.4
20260508062421 11 19 1.6 6.4 0.00 0.79 0.00 82 1015.4
20260508062313 11 5 3.2 6.4 0.00 0.79 0.00 82 1015.4
20260508062221 11 5 3.2 6.4 0.00 0.79 0.00 82 1015.4
20260508062129 11 5 3.2 6.4 0.00 0.79 0.00 82 1015.5
20260508062059 11 14 3.2 6.4 0.00 0.79 0.00 82 1015.5
20260508061813 11 355 3.2 4.8 0.00 0.79 0.00 82 1015.6
20260508061744 11 355 3.2 4.8 0.00 0.79 0.00 82 1015.6
20260508061611 11 5 3.2 4.8 0.00 0.79 0.00 82 1015.5
20260508061518 11 360 3.2 4.8 0.00 0.79 0.00 82 1015.5
20260508061426 11 5 1.6 4.8 0.00 0.79 0.00 82 1015.5
20260508061313 11 355 1.6 4.8 0.00 0.79 0.00 82 1015.5
20260508061220 11 355 3.2 4.8 0.00 0.79 0.00 82 1015.5
20260508061131 11 346 1.6 4.8 0.00 0.79 0.00 82 1015.5
20260508061017 11 355 1.6 4.8 0.00 0.79 0.00 82 1015.5
20260508060925 11 355 3.2 4.8 0.00 0.79 0.00 82 1015.5
20260508060811 11 351 1.6 4.8 0.00 0.79 0.00 82 1015.5
20260508060739 11 5 1.6 4.8 0.00 0.79 0.00 82 1015.5
20260508060559 11 5 1.6 4.8 0.00 0.79 0.00 82 1015.5
20260508060311 11 5 1.6 4.8 0.00 0.79 0.00 82 1015.5
20260508060219 11 355 3.2 4.8 0.00 0.79 0.00 83 1015.5
20260508060128 11 355 3.2 4.8 0.00 0.79 0.00 83 1015.5
20260508060018 11 360 3.2 4.8 0.00 0.79 0.00 83 1015.6
20260508055926 11 335 3.2 4.8 0.00 0.79 0.00 83 1015.6
20260508055813 11 355 3.2 4.8 0.00 0.79 0.00 83 1015.6
20260508055720 11 341 3.2 4.8 0.00 0.79 0.00 83 1015.6
20260508055629 11 346 3.2 4.8 0.00 0.79 0.00 83 1015.6
20260508055521 11 347 1.6 4.8 0.00 0.79 0.00 83 1015.5
20260508055427 11 343 1.6 4.8 0.00 0.79 0.00 83 1015.5
20260508055314 11 355 1.6 4.8 0.00 0.79 0.00 83 1015.5
20260508055243 11 355 1.6 4.8 0.00 0.79 0.00 83 1015.5
20260508055149 11 5 1.6 4.8 0.00 0.79 0.00 83 1015.4
20260508055119 11 5 1.6 4.8 0.00 0.79 0.00 82 1015.5
20260508054815 11 355 1.6 4.8 0.00 0.79 0.00 82 1015.5
20260508054743 11 355 1.6 4.8 0.00 0.79 0.00 82 1015.5
20260508054629 11 360 3.2 4.8 0.00 0.79 0.00 82 1015.6
20260508054516 11 360 3.2 4.8 0.00 0.79 0.00 82 1015.6
20260508054423 11 355 3.2 4.8 0.00 0.79 0.00 83 1015.6
20260508054312 12 355 3.2 4.8 0.00 0.79 0.79 82 1015.7
20260508054221 12 355 3.2 4.8 0.00 0.79 0.79 83 1015.7
20260508054128 12 355 3.2 4.8 0.00 0.79 0.79 83 1015.7
20260508054016 12 333 1.6 4.8 0.00 0.79 0.79 83 1015.7
20260508053923 12 345 3.2 6.4 0.00 0.79 0.79 83 1015.7
20260508053811 12 330 3.2 6.4 0.00 0.79 0.79 83 1015.8
20260508053723 12 342 3.2 6.4 0.00 0.79 0.79 83 1015.8
20260508053630 12 335 3.2 6.4 0.00 0.79 0.79 83 1015.7
20260508053601 12 336 3.2 6.4 0.00 0.79 0.79 83 1015.8
20260508053314 12 332 3.2 6.4 0.00 0.79 0.79 83 1015.6
20260508053243 12 344 3.2 6.4 0.00 0.79 0.79 83 1015.7
20260508053113 12 351 3.2 6.4 0.00 0.79 0.79 83 1015.6
20260508053021 12 348 3.2 6.4 0.00 0.79 0.79 83 1015.6
20260508052928 12 323 3.2 6.4 0.00 0.79 0.79 83 1015.6
20260508052816 12 333 3.2 4.8 0.00 0.79 0.79 83 1015.7
20260508052723 12 345 3.2 4.8 0.00 0.79 0.79 83 1015.7
20260508052614 12 338 3.2 4.8 0.00 0.79 0.79 83 1015.7
20260508052522 12 350 1.6 4.8 0.00 0.79 0.79 83 1015.7
20260508052430 12 340 1.6 4.8 0.00 0.79 0.79 83 1015.6
20260508052318 12 336 3.2 4.8 0.00 0.79 0.79 83 1015.6
20260508052225 12 355 3.2 6.4 0.00 0.79 0.79 83 1015.6
20260508052131 12 348 1.6 6.4 0.00 0.79 0.79 84 1015.6
20260508052105 12 347 1.6 6.4 0.00 0.79 0.79 84 1015.5
20260508051817 12 344 1.6 6.4 0.00 0.79 0.79 84 1015.5
20260508051723 12 342 1.6 6.4 0.00 0.79 0.79 84 1015.5
20260508051630 12 343 3.2 6.4 0.00 0.79 0.79 84 1015.5
20260508051523 12 348 3.2 6.4 0.00 0.79 0.79 85 1015.5
20260508051430 12 355 3.2 6.4 0.00 0.79 0.79 85 1015.6
20260508051318 12 355 3.2 6.4 0.00 0.79 0.79 85 1015.6
20260508051224 12 338 3.2 4.8 0.00 0.79 0.79 85 1015.6
20260508051131 12 355 1.6 4.8 0.00 0.79 0.79 86 1015.8
20260508051019 12 331 1.6 4.8 0.00 0.79 0.79 86 1015.6
20260508050930 12 335 0.0 4.8 0.00 0.79 0.79 86 1015.6
20260508050816 12 317 0.0 4.8 0.00 0.79 0.79 86 1015.7
20260508050744 12 319 1.6 4.8 0.00 0.79 0.79 86 1015.7
20260508050652 12 309 1.6 4.8 0.00 0.79 0.79 86 1015.6
20260508050601 12 309 3.2 4.8 0.00 0.79 0.79 86 1015.8
20260508050317 12 333 3.2 4.8 0.00 0.79 0.79 85 1015.6
20260508050225 12 332 1.6 4.8 0.00 0.79 0.79 86 1015.6
20260508050112 12 342 1.6 4.8 0.00 0.79 0.79 86 1015.5
20260508050019 12 340 3.2 4.8 0.00 0.79 0.79 86 1015.5
20260508045927 12 326 3.2 4.8 0.00 0.79 0.79 86 1015.5
20260508045835 12 343 1.6 4.8 0.00 0.79 0.79 86 1015.5
20260508045725 12 339 3.2 4.8 0.00 0.79 0.79 86 1015.5
20260508045613 12 346 3.2 4.8 0.00 0.79 0.79 86 1015.6
20260508045522 12 330 3.2 4.8 0.00 0.79 0.79 86 1015.6
20260508045449 12 331 3.2 4.8 0.00 0.79 0.79 86 1015.6
20260508045315 12 338 1.6 3.2 0.00 0.79 0.79 86 1015.5
20260508045222 12 337 1.6 3.2 0.00 0.79 0.79 86 1015.5
20260508045134 12 335 0.0 3.2 0.00 0.79 0.79 86 1015.5
20260508045104 12 341 1.6 3.2 0.00 0.79 0.79 86 1015.5
20260508044817 12 346 1.6 3.2 0.00 0.79 0.79 86 1015.4
20260508044724 12 346 1.6 4.8 0.00 0.79 0.79 86 1015.4
20260508044616 12 347 1.6 4.8 0.00 0.79 0.79 87 1015.4
20260508044522 12 344 1.6 4.8 0.00 0.79 0.79 87 1015.4
20260508044429 12 347 1.6 4.8 0.00 0.79 0.79 87 1015.4
20260508044316 12 346 1.6 4.8 0.00 0.79 0.79 87 1015.4
20260508044244 12 340 1.6 4.8 0.00 0.79 0.79 87 1015.4
20260508044131 12 340 1.6 4.8 0.00 0.79 0.79 87 1015.4
20260508044022 12 341 1.6 4.8 0.00 0.79 0.79 87 1015.3
20260508043930 12 342 1.6 4.8 0.00 0.79 0.79 87 1015.5
20260508043818 12 346 1.6 3.2 0.00 0.79 0.79 87 1015.4
20260508043725 12 355 0.0 3.2 0.00 0.79 0.79 87 1015.4
20260508043611 12 355 0.0 3.2 0.00 0.79 0.79 87 1015.3
20260508043545 12 360 0.0 3.2 0.00 0.79 0.79 86 1015.3
20260508043319 12 360 1.6 3.2 0.00 0.79 0.79 86 1015.3
20260508043227 12 360 1.6 3.2 0.00 0.79 0.79 86 1015.3
20260508043114 12 360 1.6 3.2 0.00 0.79 0.79 86 1015.3
20260508043041 12 360 1.6 4.8 0.00 0.79 0.79 86 1015.3
20260508042911 12 360 1.6 4.8 0.00 0.79 0.79 86 1015.3
20260508042819 12 360 1.6 4.8 0.00 0.79 0.79 86 1015.3
20260508042725 12 360 1.6 4.8 0.00 0.79 0.79 86 1015.3
20260508042612 12 360 1.6 4.8 0.00 0.79 0.79 86 1015.3
20260508042520 12 360 1.6 4.8 0.00 0.79 0.79 86 1015.4
20260508042447 12 360 1.6 4.8 0.00 0.79 0.79 86 1015.4
20260508042318 12 360 1.6 4.8 0.00 0.79 0.79 86 1015.4
20260508042225 12 360 1.6 4.8 0.00 0.79 0.79 86 1015.4
20260508042133 12 360 1.6 4.8 0.00 0.79 0.79 87 1015.3
20260508042104 12 360 1.6 4.8 0.00 0.79 0.79 87 1015.4
20260508041821 12 344 0.0 0.0 0.00 0.79 0.79 87 1015.3
20260508041750 12 344 0.0 0.0 0.00 0.79 0.79 86 1015.3
20260508041618 12 344 0.0 0.0 0.00 0.79 0.79 86 1015.4
20260508041544 12 344 0.0 0.0 0.00 0.79 0.79 86 1015.4
20260508041411 12 344 0.0 0.0 0.00 0.79 0.79 86 1015.5
20260508041339 12 344 0.0 0.0 0.00 0.79 0.79 86 1015.5
20260508041226 12 344 0.0 0.0 0.00 0.79 0.79 86 1015.5
20260508041117 12 344 0.0 0.0 0.00 0.79 0.79 86 1015.5
20260508041025 12 344 0.0 0.0 0.00 0.79 0.79 86 1015.5
20260508040913 12 344 0.0 0.0 0.00 0.79 0.79 86 1015.5
20260508040821 12 344 0.0 1.6 0.00 0.79 0.79 86 1015.5
20260508040729 12 344 0.0 1.6 0.00 0.79 0.79 86 1015.6
20260508040621 12 343 0.0 1.6 0.00 0.79 0.79 86 1015.5
20260508040551 12 343 0.0 1.6 0.00 0.79 0.79 86 1015.5
20260508040325 12 333 0.0 1.6 0.00 0.79 0.79 86 1015.4
20260508040211 12 329 0.0 1.6 0.00 0.79 0.79 86 1015.4
20260508040120 12 329 0.0 1.6 0.00 0.79 0.79 86 1015.5
20260508040030 12 329 0.0 1.6 0.00 0.79 0.79 86 1015.5
20260508035916 12 329 0.0 3.2 0.00 0.79 0.79 86 1015.4
20260508035844 12 321 0.0 3.2 0.00 0.79 0.79 87 1015.4
20260508035730 12 311 0.0 3.2 0.00 0.79 0.79 86 1015.5
20260508035617 12 305 0.0 3.2 0.00 0.79 0.79 87 1015.5
20260508035546 12 305 0.0 3.2 0.00 0.79 0.79 87 1015.5
20260508035437 12 299 0.0 3.2 0.00 0.79 0.79 87 1015.5
20260508035324 12 300 0.0 3.2 0.00 0.79 0.79 86 1015.5
20260508035252 12 319 0.0 3.2 0.00 0.79 0.79 86 1015.5
20260508035138 12 319 0.0 3.2 0.00 0.79 0.79 86 1015.4
20260508035046 12 319 0.0 1.6 0.00 0.79 0.79 86 1015.5
20260508034839 12 316 0.0 1.6 0.00 0.79 0.79 86 1015.4
20260508034745 12 316 0.0 1.6 0.00 0.79 0.79 86 1015.4
20260508034616 12 294 0.0 1.6 0.00 0.79 0.79 86 1015.4
20260508034523 12 294 0.0 1.6 0.00 0.79 0.79 86 1015.4
20260508034450 12 294 0.0 1.6 0.00 0.79 0.79 86 1015.4
20260508034316 12 294 0.0 1.6 0.00 0.89 0.79 85 1015.4
20260508034223 12 294 0.0 1.6 0.00 0.89 0.79 85 1015.4
20260508034114 12 294 0.0 1.6 0.00 0.89 0.79 85 1015.4
20260508034022 12 294 0.0 1.6 0.00 0.89 0.79 85 1015.4
20260508033951 12 294 0.0 0.0 0.00 0.89 0.79 85 1015.4
20260508033818 12 294 0.0 0.0 0.00 0.89 0.79 85 1015.3
20260508033725 12 294 0.0 0.0 0.00 0.89 0.79 85 1015.3
20260508033613 13 294 0.0 3.2 0.00 0.89 0.79 85 1015.4
20260508033548 13 294 0.0 3.2 0.00 0.89 0.79 85 1015.4
20260508033342 13 294 0.0 3.2 0.00 0.89 0.79 84 1015.5
20260508033228 13 294 0.0 3.2 0.00 0.89 0.79 84 1015.5
20260508033116 13 294 0.0 3.2 0.00 0.89 0.79 84 1015.5
20260508033025 13 294 0.0 3.2 0.00 0.89 0.79 84 1015.5
20260508032916 13 294 1.6 3.2 0.00 0.89 0.79 84 1015.5
20260508032824 13 294 1.6 4.8 0.00 0.89 0.79 83 1015.5
20260508032712 13 294 1.6 4.8 0.00 0.89 0.79 83 1015.5
20260508032640 13 294 1.6 4.8 0.00 0.89 0.79 83 1015.3
20260508032527 13 294 1.6 4.8 0.00 0.89 0.79 83 1015.3
20260508032415 13 299 0.0 4.8 0.00 0.89 0.79 83 1015.3
20260508032346 13 325 0.0 4.8 0.00 0.89 0.79 83 1015.3
20260508032213 13 327 1.6 4.8 0.00 0.89 0.79 83 1015.4
20260508032121 13 331 1.6 4.8 0.00 0.89 0.79 83 1015.3
20260508032052 13 331 3.2 4.8 0.00 0.89 0.79 82 1015.3
20260508031825 13 348 3.2 4.8 0.00 0.89 0.79 82 1015.4
20260508031718 13 346 3.2 3.2 0.00 0.89 0.79 82 1015.4
20260508031625 13 346 1.6 3.2 0.00 0.89 0.79 82 1015.4
20260508031534 13 346 1.6 4.8 0.00 0.89 0.79 82 1015.4
20260508031440 13 346 1.6 4.8 0.00 0.89 0.79 81 1015.5
20260508031326 13 346 1.6 4.8 0.00 0.89 0.79 81 1015.5
20260508031213 13 346 1.6 4.8 0.00 0.89 0.79 81 1015.4
20260508031125 13 347 3.2 4.8 0.00 0.89 0.79 81 1015.4
20260508031013 13 347 1.6 4.8 0.00 0.89 0.79 81 1015.2
20260508030942 13 346 3.2 4.8 0.00 0.89 0.79 81 1015.3
20260508030848 13 346 3.2 4.8 0.00 0.89 0.79 81 1015.3
20260508030713 13 340 3.2 4.8 0.00 0.89 0.79 81 1015.2
20260508030622 13 339 3.2 4.8 0.00 0.89 0.79 81 1015.2
20260508030555 13 340 3.2 4.8 0.00 0.89 0.79 81 1015.2
20260508030329 13 331 1.6 4.8 0.00 0.89 0.79 81 1015.3
20260508030218 13 299 0.0 0.0 0.00 0.89 0.79 80 1015.3
20260508030125 13 299 0.0 0.0 0.00 0.89 0.79 80 1015.3
20260508030017 13 299 0.0 0.0 0.00 0.89 0.79 80 1015.2
20260508025924 13 299 0.0 0.0 0.00 0.89 0.79 80 1015.2
20260508025813 13 299 0.0 0.0 0.00 0.89 0.79 80 1015.3
20260508025721 13 299 0.0 0.0 0.00 0.89 0.79 80 1015.3
20260508025629 13 299 0.0 0.0 0.00 0.89 0.79 80 1015.3
20260508025516 13 299 0.0 0.0 0.00 0.89 0.79 80 1015.2
20260508025427 13 299 0.0 0.0 0.00 0.89 0.79 80 1015.2
20260508025315 14 299 0.0 3.2 0.00 0.89 0.79 80 1015.2
20260508025243 14 299 0.0 3.2 0.00 0.89 0.79 80 1015.2
20260508025130 14 299 0.0 3.2 0.00 0.89 0.79 80 1015.2
20260508025045 14 299 0.0 3.2 0.00 0.89 0.79 80 1015.2
20260508024818 14 299 0.0 3.2 0.00 0.89 0.79 79 1015.1
20260508024724 14 299 0.0 3.2 0.00 0.89 0.79 79 1015.1
20260508024612 14 299 0.0 3.2 0.00 0.89 0.79 79 1015.1
20260508024520 14 299 1.6 3.2 0.00 0.89 0.79 78 1015.1
20260508024429 14 299 1.6 3.2 0.00 0.89 0.79 78 1015.1
20260508024321 14 333 3.2 3.2 0.00 0.99 0.79 77 1015.1
20260508024228 14 333 1.6 3.2 0.00 0.99 0.79 77 1015.1
20260508024116 14 333 1.6 3.2 0.00 0.99 0.79 77 1015.0
20260508024024 14 333 3.2 3.2 0.00 0.99 0.79 77 1015.0
20260508023913 14 333 3.2 3.2 0.00 0.99 0.79 76 1015.1
20260508023824 14 333 3.2 3.2 0.00 0.99 0.79 76 1015.1
20260508023711 14 333 3.2 3.2 0.00 0.99 0.79 76 1015.1
20260508023638 14 333 1.6 3.2 0.00 0.99 0.79 76 1015.1
20260508023609 14 333 1.6 3.2 0.00 0.99 0.79 76 1015.1
20260508023321 15 333 1.6 3.2 0.00 0.99 0.79 76 1015.0
20260508023211 15 333 1.6 3.2 0.00 0.99 0.79 75 1014.9
20260508023118 15 333 0.0 1.6 0.00 0.99 0.79 75 1014.9
20260508023026 15 333 0.0 1.6 0.00 0.99 0.79 75 1014.9
20260508022913 15 333 0.0 1.6 0.00 0.99 0.79 75 1014.9
20260508022820 15 333 0.0 1.6 0.00 0.99 0.79 75 1015.0
20260508022748 15 333 0.0 1.6 0.00 0.99 0.79 75 1015.0
20260508022618 15 333 0.0 0.0 0.00 0.99 0.79 75 1015.0
20260508022527 15 333 0.0 0.0 0.00 0.99 0.79 75 1015.0
20260508022414 15 333 0.0 0.0 0.00 0.99 0.79 75 1015.0
20260508022341 15 333 0.0 0.0 0.00 0.99 0.79 75 1014.9
20260508022228 15 333 0.0 0.0 0.00 0.99 0.79 74 1014.9
20260508022116 15 333 0.0 0.0 0.00 0.99 0.79 75 1014.9
20260508022051 15 333 0.0 0.0 0.00 0.99 0.79 75 1014.9
20260508021843 15 333 0.0 0.0 0.00 0.99 0.79 74 1015.0
20260508021729 15 333 0.0 0.0 0.00 0.99 0.79 74 1014.9
20260508021617 15 333 0.0 0.0 0.00 0.99 0.79 74 1014.9
20260508021544 15 333 0.0 0.0 0.00 0.99 0.79 74 1014.9
20260508021413 15 333 0.0 0.0 0.00 0.99 0.79 74 1014.9
20260508021322 15 333 0.0 1.6 0.00 0.99 0.79 74 1014.9
20260508021230 15 333 0.0 3.2 0.00 0.99 0.79 74 1014.9
20260508021117 15 333 0.0 3.2 0.00 0.99 0.79 74 1014.7
20260508021025 15 333 0.0 3.2 0.00 0.99 0.79 74 1014.7
20260508020916 15 333 0.0 3.2 0.00 0.99 0.79 74 1014.7
20260508020824 15 333 0.0 3.2 0.00 0.99 0.79 74 1014.7
20260508020731 15 333 0.0 3.2 0.00 0.99 0.79 73 1014.8
20260508020700 15 333 1.6 3.2 0.00 0.99 0.79 73 1014.7
20260508020547 15 331 1.6 3.2 0.00 0.99 0.79 73 1014.7
20260508020321 15 329 1.6 3.2 0.00 0.99 0.79 73 1014.8
20260508020213 15 298 0.0 1.6 0.00 0.99 0.79 73 1014.9
20260508020120 15 294 0.0 1.6 0.00 0.99 0.79 73 1014.8
20260508020028 15 294 0.0 0.0 0.00 0.99 0.79 73 1014.8
20260508015915 15 294 0.0 0.0 0.00 0.99 0.79 73 1014.8
20260508015822 15 294 0.0 0.0 0.00 0.99 0.79 73 1014.8
20260508015713 15 294 0.0 0.0 0.00 0.99 0.79 73 1014.8
20260508015620 15 294 0.0 0.0 0.00 0.99 0.79 72 1014.8
20260508015527 15 294 0.0 0.0 0.00 0.99 0.79 72 1014.8
20260508015414 15 294 0.0 0.0 0.00 0.99 0.79 72 1014.8
20260508015320 15 297 0.0 0.0 0.00 0.99 0.79 72 1014.8
20260508015211 15 297 0.0 0.0 0.00 0.99 0.79 72 1014.8
20260508015138 15 297 0.0 0.0 0.00 0.99 0.79 72 1014.8
20260508015108 15 297 0.0 0.0 0.00 0.99 0.79 73 1014.6
20260508014820 15 297 0.0 0.0 0.00 0.99 0.79 73 1014.5
20260508014726 15 297 0.0 0.0 0.00 0.99 0.79 73 1014.5
20260508014619 15 297 0.0 0.0 0.00 0.99 0.79 73 1014.6
20260508014526 16 297 0.0 0.0 0.00 0.99 0.79 72 1014.6
20260508014413 16 297 0.0 0.0 0.00 0.99 0.79 72 1014.6
20260508014341 16 297 0.0 0.0 0.00 0.99 0.79 72 1014.6
20260508014227 16 297 0.0 0.0 0.00 0.99 0.79 72 1014.6
20260508014114 16 297 0.0 0.0 0.00 0.99 0.79 72 1014.5
20260508014026 16 297 0.0 0.0 0.00 0.99 0.79 72 1014.5
20260508013914 16 297 0.0 0.0 0.00 0.99 0.79 71 1014.6
20260508013820 16 297 0.0 0.0 0.00 0.99 0.79 71 1014.6
20260508013748 16 297 0.0 1.6 0.00 0.99 0.79 71 1014.6
20260508013614 16 297 0.0 3.2 0.00 0.99 0.79 71 1014.5
20260508013548 16 297 0.0 3.2 0.00 0.99 0.79 70 1014.5
20260508013341 16 297 0.0 3.2 0.00 0.99 0.79 70 1014.5
20260508013228 16 297 0.0 3.2 0.00 0.99 0.79 70 1014.5
20260508013137 16 297 0.0 3.2 0.00 0.99 0.79 70 1014.5
20260508013023 16 297 0.0 3.2 0.00 0.99 0.79 70 1014.5
20260508012951 16 297 1.6 3.2 0.00 0.99 0.79 70 1014.4
20260508012837 16 297 1.6 3.2 0.00 0.99 0.79 69 1014.6
20260508012727 16 16 0.0 3.2 0.00 0.99 0.79 69 1014.6
20260508012615 16 16 0.0 3.2 0.00 0.99 0.79 68 1014.4
20260508012523 16 16 0.0 3.2 0.00 0.99 0.79 68 1014.4
20260508012430 16 16 0.0 3.2 0.00 0.99 0.79 68 1014.5
20260508012317 16 16 0.0 3.2 0.00 0.99 0.79 68 1014.4
20260508012225 16 16 1.6 3.2 0.00 0.99 0.79 68 1014.4
20260508012157 16 16 1.6 3.2 0.00 0.99 0.79 68 1014.4
20260508012108 16 16 1.6 4.8 0.00 0.99 0.79 68 1014.4
20260508011820 16 16 1.6 4.8 0.00 0.99 0.79 68 1014.3
20260508011748 16 16 3.2 4.8 0.00 0.99 0.79 68 1014.3
20260508011613 16 16 3.2 4.8 0.00 0.99 0.79 67 1014.3
20260508011526 16 16 3.2 4.8 0.00 0.99 0.79 67 1014.3
20260508011413 16 16 3.2 4.8 0.00 0.99 0.79 67 1014.2
20260508011322 16 16 3.2 4.8 0.00 0.99 0.79 66 1014.2
20260508011230 16 16 3.2 4.8 0.00 0.99 0.79 66 1014.3
20260508011119 17 19 3.2 4.8 0.00 0.99 0.79 66 1014.1
20260508011026 17 11 3.2 4.8 0.00 0.99 0.79 66 1014.1
20260508010917 17 360 3.2 4.8 0.00 0.99 0.79 65 1014.1
20260508010824 17 360 3.2 4.8 0.00 0.99 0.79 65 1014.1
20260508010712 17 346 3.2 4.8 0.00 0.99 0.79 64 1014.2
20260508010619 17 334 3.2 4.8 0.00 0.99 0.79 64 1014.2
20260508010552 17 331 3.2 4.8 0.00 0.99 0.79 64 1014.2
20260508010325 17 347 3.2 4.8 0.00 0.99 0.79 63 1014.1
20260508010232 17 355 3.2 4.8 0.00 0.99 0.79 63 1014.1
20260508010118 17 355 3.2 4.8 0.00 0.99 0.79 62 1014.0
20260508010026 17 335 3.2 4.8 0.00 0.99 0.79 62 1014.0
20260508005912 17 332 3.2 4.8 0.00 0.99 0.79 62 1014.0
20260508005823 17 333 3.2 4.8 0.00 0.99 0.79 62 1014.0
20260508005712 17 329 3.2 4.8 0.00 0.99 0.79 63 1014.0
20260508005619 17 319 3.2 4.8 0.00 0.99 0.79 63 1014.0
20260508005526 17 322 1.6 4.8 0.00 0.99 0.79 62 1014.0
20260508005413 17 319 1.6 4.8 0.00 0.99 0.79 63 1014.1
20260508005325 17 319 3.2 4.8 0.00 0.99 0.79 63 1014.1
20260508005212 17 317 3.2 4.8 0.00 0.99 0.79 63 1014.2
20260508005120 17 314 1.6 4.8 0.00 0.99 0.79 63 1014.1
20260508005050 17 298 1.6 3.2 0.00 0.99 0.79 63 1014.1
20260508004824 17 298 3.2 3.2 0.00 0.99 0.79 63 1014.1
20260508004716 17 297 1.6 3.2 0.00 0.99 0.79 63 1014.2
20260508004624 17 297 1.6 3.2 0.00 0.99 0.79 63 1014.2
20260508004531 17 292 3.2 3.2 0.00 0.99 0.79 63 1014.3
20260508004419 17 298 1.6 3.2 0.00 0.99 0.79 63 1014.2
20260508004326 17 298 1.6 3.2 0.00 0.99 0.79 63 1014.2
20260508004216 17 289 1.6 3.2 0.00 0.99 0.79 62 1014.2
20260508004125 17 294 1.6 3.2 0.00 0.99 0.79 62 1014.2
20260508004011 17 294 1.6 3.2 0.00 0.99 0.79 61 1014.1
20260508003918 18 290 1.6 3.2 0.00 0.99 0.79 61 1014.2
20260508003825 18 291 1.6 4.8 0.00 0.99 0.79 61 1014.2
20260508003712 18 291 1.6 4.8 0.00 0.99 0.79 61 1014.2
20260508003624 18 293 1.6 4.8 0.00 0.99 0.79 61 1014.2
20260508003556 18 294 1.6 6.4 0.00 0.99 0.79 61 1014.1
20260508003330 18 311 1.6 6.4 0.00 0.99 0.79 61 1014.1
20260508003217 18 311 1.6 6.4 0.00 0.99 0.79 60 1014.0
20260508003129 18 311 1.6 8.0 0.00 0.99 0.79 60 1014.0
20260508003018 18 312 3.2 8.0 0.00 0.99 0.79 59 1014.1
20260508002925 18 316 3.2 8.0 0.00 0.99 0.79 59 1014.1
20260508002813 18 310 3.2 8.0 0.00 0.99 0.79 57 1014.1
20260508002740 18 321 4.8 8.0 0.00 0.99 0.79 57 1014.0
20260508002625 18 317 4.8 8.0 0.00 0.99 0.79 57 1014.0
20260508002517 18 308 4.8 8.0 0.00 0.99 0.79 57 1014.1
20260508002444 18 298 4.8 8.0 0.00 0.99 0.79 57 1014.1
20260508002350 18 321 4.8 8.0 0.00 0.99 0.79 57 1014.1
20260508002217 18 333 4.8 8.0 0.00 0.99 0.79 56 1014.0
20260508002145 18 309 4.8 6.4 0.00 0.99 0.79 56 1014.0
20260508002054 18 318 4.8 6.4 0.00 0.99 0.79 56 1013.9
20260508001812 18 299 3.2 6.4 0.00 0.99 0.79 56 1013.9
20260508001719 18 320 3.2 6.4 0.00 0.99 0.79 56 1014.0
20260508001645 18 326 3.2 6.4 0.00 0.99 0.79 55 1014.0
20260508001531 18 321 3.2 8.0 0.00 0.99 0.79 56 1013.9
20260508001418 18 302 4.8 8.0 0.00 0.99 0.79 55 1013.9
20260508001325 18 328 4.8 8.0 0.00 0.99 0.79 55 1013.9
20260508001217 18 320 3.2 8.0 0.00 0.99 0.79 55 1013.8
20260508001124 18 320 4.8 8.0 0.00 0.99 0.79 55 1013.8
20260508001032 18 337 4.8 8.0 0.00 0.99 0.79 55 1013.8
20260508000918 18 305 3.2 8.0 0.00 0.99 0.79 55 1013.8
20260508000845 18 312 4.8 8.0 0.00 0.99 0.79 55 1013.8
20260508000733 18 321 4.8 8.0 0.00 0.99 0.79 54 1013.8
20260508000623 18 318 3.2 6.4 0.00 0.99 0.79 54 1013.8
20260508000553 18 288 3.2 6.4 0.00 0.99 0.79 54 1013.8
20260508000327 18 303 3.2 9.7 0.00 0.99 0.79 54 1013.7
20260508000215 18 321 3.2 9.7 0.00 0.99 0.79 54 1013.7
20260508000122 19 332 4.8 12.9 0.00 0.99 0.79 54 1013.7
20260508000014 19 310 4.8 12.9 0.00 0.99 0.79 54 1013.7
20260507235922 19 305 4.8 12.9 0.00 0.99 0.79 54 1013.7
20260507235828 19 300 4.8 12.9 0.00 0.99 0.79 54 1013.6
20260507235715 19 327 4.8 12.9 0.00 0.99 0.79 53 1013.5
20260507235622 19 319 6.4 12.9 0.00 0.99 0.79 53 1013.5
20260507235535 19 311 8.0 12.9 0.00 0.99 0.79 54 1013.5
20260507235422 19 323 8.0 12.9 0.00 0.99 0.79 53 1013.5
20260507235329 19 333 6.4 12.9 0.00 0.99 0.79 53 1013.5
20260507235215 19 321 6.4 9.7 0.00 0.99 0.79 53 1013.4
20260507235124 19 325 6.4 9.7 0.00 0.99 0.79 53 1013.4
20260507235059 19 321 8.0 9.7 0.00 0.99 0.79 53 1013.3
20260507234833 19 340 6.4 9.7 0.00 0.99 0.79 53 1013.5
20260507234740 19 322 4.8 9.7 0.00 0.99 0.79 53 1013.5
20260507234646 19 342 6.4 9.7 0.00 0.99 0.79 53 1013.5
20260507234532 19 310 6.4 11.3 0.00 0.99 0.79 53 1013.5
20260507234418 19 297 6.4 9.7 0.00 1.17 0.79 53 1013.5
20260507234325 19 300 6.4 12.9 0.00 1.17 0.79 53 1013.5
20260507234233 19 319 6.4 12.9 0.00 1.17 0.79 53 1013.5
20260507234123 19 311 6.4 12.9 0.00 1.17 0.79 53 1013.5
20260507234030 19 290 4.8 12.9 0.00 1.17 0.79 53 1013.5
20260507233918 19 333 6.4 12.9 0.00 1.17 0.79 53 1013.5
20260507233825 19 298 6.4 12.9 0.00 1.17 0.79 53 1013.5
20260507233711 19 344 8.0 16.1 0.00 1.17 0.79 53 1013.5
20260507233622 19 320 8.0 16.1 0.00 1.17 0.79 52 1013.5
20260507233552 19 316 8.0 16.1 0.00 1.17 0.79 52 1013.5
20260507233325 19 321 8.0 16.1 0.00 1.17 0.79 52 1013.5
20260507233212 19 325 6.4 16.1 0.00 1.17 0.79 52 1013.4
20260507233120 19 315 6.4 16.1 0.00 1.17 0.79 52 1013.5
20260507233010 19 332 8.0 16.1 0.00 1.17 0.79 52 1013.4
20260507232918 19 308 8.0 16.1 0.00 1.17 0.79 52 1013.3
20260507232827 19 323 8.0 16.1 0.00 1.17 0.79 52 1013.3
20260507232714 19 344 8.0 12.9 0.00 1.17 0.79 52 1013.4
20260507232620 20 324 9.7 12.9 0.00 1.17 0.79 52 1013.4
20260507232513 20 319 9.7 12.9 0.00 1.17 0.79 52 1013.4
20260507232441 20 344 8.0 12.9 0.00 1.17 0.79 51 1013.4
20260507232327 20 325 6.4 14.5 0.00 1.17 0.79 51 1013.4
20260507232235 20 298 6.4 14.5 0.00 1.17 0.79 52 1013.5
20260507232122 20 320 6.4 16.1 0.00 1.17 0.79 52 1013.5
20260507232056 20 350 8.0 16.1 0.00 1.17 0.79 52 1013.5
20260507231830 20 344 8.0 16.1 0.00 1.17 0.79 51 1013.6
20260507231719 20 355 8.0 16.1 0.00 1.17 0.79 52 1013.6
20260507231625 20 329 9.7 16.1 0.00 1.17 0.79 52 1013.6
20260507231513 20 331 8.0 16.1 0.00 1.17 0.79 51 1013.5
20260507231420 20 355 6.4 16.1 0.00 1.17 0.79 51 1013.4
20260507231352 20 5 8.0 16.1 0.00 1.17 0.79 51 1013.4
20260507231217 20 303 11.3 16.1 0.00 1.17 0.79 51 1013.5
20260507231145 20 318 11.3 16.1 0.00 1.17 0.79 51 1013.5
20260507231012 20 334 9.7 16.1 0.00 1.17 0.79 51 1013.5
20260507230921 20 360 9.7 19.3 0.00 1.17 0.79 51 1013.6
20260507230829 20 322 8.0 19.3 0.00 1.17 0.79 50 1013.6
20260507230721 20 346 8.0 19.3 0.00 1.17 0.79 51 1013.7
20260507230628 20 313 9.7 19.3 0.00 1.17 0.79 50 1013.6
20260507230600 20 325 11.3 19.3 0.00 1.17 0.79 50 1013.6
20260507230313 20 315 12.9 19.3 0.00 1.17 0.79 50 1013.5
20260507230224 20 298 11.3 19.3 0.00 1.17 0.79 50 1013.5
20260507230113 20 324 12.9 19.3 0.00 1.17 0.79 52 1013.4
20260507230021 20 346 11.3 19.3 0.00 1.17 0.79 52 1013.5
20260507225928 20 278 6.4 17.7 0.00 1.17 0.79 52 1013.5
20260507225817 20 340 6.4 19.3 0.00 1.17 0.79 52 1013.4
20260507225744 20 302 8.0 20.9 0.00 1.17 0.79 52 1013.4
20260507225612 20 350 9.7 20.9 0.00 1.17 0.79 52 1013.4
20260507225521 20 327 9.7 20.9 0.00 1.17 0.79 52 1013.4
20260507225430 20 360 9.7 20.9 0.00 1.17 0.79 52 1013.4
20260507225317 20 347 9.7 20.9 0.00 1.17 0.79 51 1013.5
20260507225225 20 311 12.9 20.9 0.00 1.17 0.79 50 1013.5
20260507225115 20 308 14.5 20.9 0.00 1.17 0.79 50 1013.5
20260507225045 20 344 14.5 20.9 0.00 1.17 0.79 51 1013.5
20260507224819 21 294 11.3 17.7 0.00 1.17 0.79 51 1013.4
20260507224725 21 307 11.3 17.7 0.00 1.17 0.79 51 1013.4
20260507224634 21 322 11.3 17.7 0.00 1.17 0.79 50 1013.4
20260507224524 21 330 9.7 17.7 0.00 1.17 0.79 51 1013.4
20260507224432 21 327 11.3 17.7 0.00 1.40 0.79 51 1013.4
20260507224319 21 317 11.3 17.7 0.00 1.40 0.79 50 1013.5
20260507224227 21 320 12.9 17.7 0.00 1.40 0.79 50 1013.5
20260507224114 21 302 11.3 17.7 0.00 1.40 0.79 51 1013.5
20260507224042 21 325 9.7 19.3 0.00 1.40 0.79 51 1013.5
20260507223948 21 326 9.7 19.3 0.00 1.40 0.79 51 1013.6
20260507223818 21 341 6.4 19.3 0.00 1.40 0.79 51 1013.5
20260507223725 21 322 8.0 19.3 0.00 1.40 0.79 51 1013.5
20260507223614 21 336 11.3 19.3 0.00 1.40 0.79 50 1013.6
20260507223545 21 317 11.3 19.3 0.00 1.40 0.79 50 1013.6
20260507223321 21 319 12.9 19.3 0.00 1.40 0.79 50 1013.5
20260507223229 21 320 11.3 19.3 0.00 1.40 0.79 50 1013.5
20260507223118 21 319 11.3 17.7 0.00 1.40 0.79 51 1013.5
20260507223025 21 338 9.7 17.7 0.00 1.40 0.79 51 1013.5
20260507222911 21 348 8.0 16.1 0.00 1.40 0.79 52 1013.5
20260507222820 21 306 8.0 16.1 0.00 1.40 0.79 51 1013.4
20260507222711 21 325 8.0 16.1 0.00 1.40 0.79 51 1013.4
20260507222619 21 342 8.0 17.7 0.00 1.40 0.79 50 1013.4
20260507222525 21 307 8.0 17.7 0.00 1.40 0.79 50 1013.4
20260507222432 21 329 8.0 17.7 0.00 1.40 0.79 50 1013.4
20260507222319 21 275 8.0 17.7 0.00 1.40 0.79 51 1013.3
20260507222226 21 302 9.7 17.7 0.00 1.40 0.79 51 1013.3
20260507222137 21 279 9.7 17.7 0.00 1.40 0.79 50 1013.3
20260507222046 21 248 9.7 17.7 0.00 1.40 0.79 52 1013.2
20260507221841 21 331 11.3 17.7 0.00 1.40 0.79 52 1013.3
20260507221727 21 309 11.3 17.7 0.00 1.40 0.79 51 1013.3
20260507221634 21 339 8.0 16.1 0.00 1.40 0.79 51 1013.3
20260507221525 21 329 8.0 16.1 0.00 1.40 0.79 51 1013.3
20260507221411 21 331 8.0 17.7 0.00 1.40 0.79 51 1013.2
20260507221320 22 329 6.4 17.7 0.00 1.40 0.79 51 1013.2
20260507221227 22 5 9.7 17.7 0.00 1.40 0.79 51 1013.2
20260507221113 22 331 9.7 17.7 0.00 1.40 0.79 50 1013.3
20260507221020 22 313 6.4 17.7 0.00 1.40 0.79 50 1013.3
20260507220931 22 334 4.8 17.7 0.00 1.40 0.79 49 1013.3
20260507220818 22 310 8.0 17.7 0.00 1.40 0.79 49 1013.4
20260507220725 22 331 9.7 17.7 0.00 1.40 0.79 49 1013.4
20260507220612 22 348 11.3 17.7 0.00 1.40 0.79 49 1013.4
20260507220548 22 322 9.7 16.1 0.00 1.40 0.79 49 1013.4
20260507220319 22 326 9.7 16.1 0.00 1.40 0.79 49 1013.4
20260507220227 22 338 8.0 16.1 0.00 1.40 0.79 50 1013.4
20260507220115 22 268 4.8 14.5 0.00 1.40 0.79 50 1013.5
20260507220021 22 325 4.8 17.7 0.00 1.40 0.79 50 1013.5
20260507215913 22 318 4.8 17.7 0.00 1.40 0.79 51 1013.3
20260507215821 22 325 6.4 17.7 0.00 1.40 0.79 52 1013.3
20260507215727 22 329 6.4 17.7 0.00 1.40 0.79 50 1013.3
20260507215615 22 26 6.4 17.7 0.00 1.40 0.79 50 1013.3
20260507215522 22 5 6.4 17.7 0.00 1.40 0.79 50 1013.3
20260507215430 22 343 8.0 17.7 0.00 1.40 0.79 50 1013.3
20260507215320 22 346 11.3 17.7 0.00 1.40 0.79 51 1013.3
20260507215228 22 339 9.7 17.7 0.00 1.40 0.79 52 1013.3
20260507215136 22 355 9.7 19.3 0.00 1.40 0.79 51 1013.3
20260507215107 22 338 8.0 19.3 0.00 1.40 0.79 51 1013.2
20260507214840 22 336 8.0 19.3 0.00 1.40 0.79 51 1013.4
20260507214724 22 294 9.7 19.3 0.00 1.40 0.79 50 1013.4
20260507214617 22 304 9.7 19.3 0.00 1.40 0.79 50 1013.4
20260507214523 22 284 9.7 19.3 0.00 1.40 0.79 50 1013.4
20260507214430 22 302 11.3 19.3 0.00 1.40 0.79 50 1013.3
20260507214318 22 303 9.7 19.3 0.00 2.08 0.79 50 1013.2
20260507214226 22 274 6.4 19.3 0.00 2.08 0.79 51 1013.2
20260507214116 22 323 6.4 19.3 0.00 2.08 0.79 51 1013.1
20260507214045 22 333 8.0 19.3 0.00 2.08 0.79 50 1013.1
20260507213911 22 316 8.0 19.3 0.00 2.08 0.79 51 1013.2
20260507213818 22 329 8.0 19.3 0.00 2.08 0.79 50 1013.2
20260507213745 22 323 8.0 19.3 0.00 2.08 0.79 50 1013.2
20260507213612 22 317 8.0 19.3 0.00 2.08 0.79 50 1013.2
20260507213546 22 319 8.0 19.3 0.00 2.08 0.79 52 1013.2
20260507213319 22 325 8.0 17.7 0.00 2.08 0.79 52 1013.2
20260507213227 22 331 8.0 17.7 0.00 2.08 0.79 52 1013.2
20260507213114 22 355 8.0 17.7 0.00 2.08 0.79 52 1013.3
20260507213023 22 355 11.3 17.7 0.00 2.08 0.79 51 1013.3
20260507212915 22 342 12.9 17.7 0.00 2.08 0.79 51 1013.3
20260507212822 22 360 11.3 16.1 0.00 2.08 0.79 50 1013.3
20260507212729 22 331 6.4 16.1 0.00 2.08 0.79 50 1013.3
20260507212617 22 294 6.4 17.7 0.00 2.08 0.79 49 1013.2
20260507212525 22 9 8.0 22.5 0.00 2.08 0.79 49 1013.2
20260507212417 22 76 9.7 22.5 0.00 2.08 0.79 50 1013.3
20260507212344 22 279 9.7 22.5 0.00 2.08 0.79 50 1013.3
20260507212251 22 329 11.3 22.5 0.00 2.08 0.79 50 1013.3
20260507212117 22 294 9.7 22.5 0.00 2.08 0.79 51 1013.3
20260507212047 22 307 11.3 22.5 0.00 2.08 0.79 51 1013.3
20260507211821 22 314 12.9 22.5 0.00 2.08 0.79 51 1013.3